Wetterdaten: Donnerstag, 13.04.2017
Datum Zeit Temp. Aussen Temp. o. S. +5cm Feuchte Auss BlattFeu 1 Luftdruck Regen Sonnenschein Regendauer Solar Windben Empfang
13.04.2017 00:00 9,7 C 8,9 C 7,2 C 87 % 15 lf 1013,2 hPa 0,0 l/m 0 min 0 min 0 W/m 18,8 km/h (3 Bft) 89,36 %
13.04.2017 00:02 9,7 C 8,9 C 7,2 C 87 % 15 lf 1013,3 hPa 0,0 l/m 0 min 0 min 0 W/m 12,6 km/h (3 Bft) 14,29 %
13.04.2017 00:04 9,7 C 8,9 C 7,2 C 87 % 15 lf 1013,2 hPa 0,0 l/m 0 min 0 min 0 W/m 12,6 km/h (3 Bft) 71,05 %
13.04.2017 00:10 9,6 C 8,9 C 7,2 C 87 % 15 lf 1013,0 hPa 0,0 l/m 0 min 0 min 0 W/m 20,9 km/h (4 Bft) 100,00 %
13.04.2017 00:12 9,6 C 8,9 C 7,2 C 88 % 15 lf 1013,0 hPa 0,0 l/m 0 min 0 min 0 W/m 18,8 km/h (3 Bft) 93,62 %
13.04.2017 00:14 9,5 C 8,9 C 7,2 C 88 % 15 lf 1013,0 hPa 0,0 l/m 0 min 0 min 0 W/m 16,7 km/h (3 Bft) 95,74 %
13.04.2017 00:16 9,5 C 8,9 C 7,2 C 88 % 15 lf 1013,0 hPa 0,0 l/m 0 min 0 min 0 W/m 16,7 km/h (3 Bft) 93,48 %
13.04.2017 00:18 9,5 C 9,4 C 7,2 C 88 % 15 lf 1013,0 hPa 0,0 l/m 0 min 0 min 0 W/m 12,6 km/h (3 Bft) 95,74 %
13.04.2017 00:20 9,4 C 9,4 C 7,2 C 88 % 15 lf 1012,9 hPa 0,0 l/m 0 min 2 min 0 W/m 18,8 km/h (3 Bft) 97,87 %
13.04.2017 00:22 9,4 C 9,4 C 7,2 C 88 % 15 lf 1013,0 hPa 0,0 l/m 0 min 2 min 0 W/m 29,3 km/h (5 Bft) 95,74 %
13.04.2017 00:24 9,4 C 9,4 C 7,2 C 88 % 15 lf 1012,9 hPa 0,0 l/m 0 min 2 min 0 W/m 27,2 km/h (4 Bft) 97,87 %
13.04.2017 00:26 9,4 C 8,9 C 7,2 C 88 % 15 lf 1013,0 hPa 0,0 l/m 0 min 2 min 0 W/m 18,8 km/h (3 Bft) 97,87 %
13.04.2017 00:28 9,4 C 8,9 C 7,2 C 88 % 15 lf 1012,9 hPa 0,0 l/m 0 min 0 min 0 W/m 14,6 km/h (3 Bft) 97,83 %
13.04.2017 00:30 9,4 C 8,9 C 7,2 C 88 % 15 lf 1012,9 hPa 0,0 l/m 0 min 0 min 0 W/m 20,9 km/h (4 Bft) 100,00 %
13.04.2017 00:32 9,4 C 9,4 C 7,2 C 89 % 15 lf 1012,9 hPa 0,0 l/m 0 min 0 min 0 W/m 18,8 km/h (3 Bft) 100,00 %
13.04.2017 00:34 9,4 C 9,4 C 7,2 C 89 % 15 lf 1012,9 hPa 0,0 l/m 0 min 0 min 0 W/m 25,1 km/h (4 Bft) 100,00 %
13.04.2017 00:36 9,4 C 9,4 C 7,2 C 89 % 15 lf 1012,8 hPa 0,0 l/m 0 min 0 min 0 W/m 23,0 km/h (4 Bft) 97,87 %
13.04.2017 00:38 9,4 C 9,4 C 7,2 C 89 % 15 lf 1012,8 hPa 0,0 l/m 0 min 0 min 0 W/m 18,8 km/h (3 Bft) 97,87 %
13.04.2017 00:40 9,4 C 9,4 C 7,2 C 89 % 15 lf 1012,9 hPa 0,0 l/m 0 min 0 min 0 W/m 20,9 km/h (4 Bft) 100,00 %
13.04.2017 00:42 9,4 C 9,4 C 7,2 C 88 % 15 lf 1012,9 hPa 0,0 l/m 0 min 0 min 0 W/m 27,2 km/h (4 Bft) 100,00 %
13.04.2017 00:44 9,4 C 9,4 C 7,2 C 88 % 15 lf 1012,9 hPa 0,0 l/m 0 min 0 min 0 W/m 23,0 km/h (4 Bft) 100,00 %
13.04.2017 00:46 9,4 C 9,4 C 7,8 C 88 % 15 lf 1012,9 hPa 0,0 l/m 0 min 0 min 0 W/m 25,1 km/h (4 Bft) 100,00 %
13.04.2017 00:48 9,4 C 9,4 C 7,8 C 88 % 15 lf 1012,7 hPa 0,0 l/m 0 min 0 min 0 W/m 14,6 km/h (3 Bft) 95,74 %
13.04.2017 00:50 9,4 C 9,4 C 7,8 C 88 % 15 lf 1012,8 hPa 0,0 l/m 0 min 0 min 0 W/m 25,1 km/h (4 Bft) 95,74 %
13.04.2017 00:52 9,4 C 9,4 C 7,8 C 88 % 15 lf 1012,8 hPa 0,0 l/m 0 min 0 min 0 W/m 25,1 km/h (4 Bft) 100,00 %
13.04.2017 00:54 9,4 C 9,4 C 7,8 C 88 % 15 lf 1012,8 hPa 0,0 l/m 0 min 0 min 0 W/m 18,8 km/h (3 Bft) 100,00 %
13.04.2017 00:56 9,4 C 9,4 C 7,8 C 88 % 13 lf 1012,7 hPa 0,0 l/m 0 min 0 min 0 W/m 25,1 km/h (4 Bft) 100,00 %
13.04.2017 00:58 9,4 C 9,4 C 7,8 C 88 % 6 lf 1012,8 hPa 0,0 l/m 0 min 0 min 0 W/m 18,8 km/h (3 Bft) 100,00 %
13.04.2017 01:00 9,4 C 9,4 C 7,8 C 88 % 2 lf 1012,8 hPa 0,0 l/m 0 min 0 min 0 W/m 16,7 km/h (3 Bft) 97,87 %
13.04.2017 01:02 9,4 C 9,4 C 7,8 C 88 % 0 lf 1012,8 hPa 0,0 l/m 0 min 0 min 0 W/m 20,9 km/h (4 Bft) 100,00 %
13.04.2017 01:04 9,4 C 9,4 C 7,8 C 88 % 0 lf 1012,8 hPa 0,0 l/m 0 min 0 min 0 W/m 16,7 km/h (3 Bft) 97,83 %
13.04.2017 01:06 9,4 C 9,4 C 7,8 C 88 % 0 lf 1012,8 hPa 0,0 l/m 0 min 0 min 0 W/m 14,6 km/h (3 Bft) 89,36 %
13.04.2017 01:08 9,4 C 9,4 C 7,8 C 88 % 0 lf 1012,7 hPa 0,0 l/m 0 min 0 min 0 W/m 25,1 km/h (4 Bft) 100,00 %
13.04.2017 01:10 9,4 C 9,4 C 7,8 C 88 % 0 lf 1012,7 hPa 0,0 l/m 0 min 0 min 0 W/m 16,7 km/h (3 Bft) 100,00 %
13.04.2017 01:12 9,4 C 9,4 C 7,8 C 88 % 0 lf 1012,8 hPa 0,0 l/m 0 min 0 min 0 W/m 20,9 km/h (4 Bft) 100,00 %
13.04.2017 01:14 9,4 C 9,4 C 7,8 C 88 % 0 lf 1012,8 hPa 0,0 l/m 0 min 0 min 0 W/m 25,1 km/h (4 Bft) 100,00 %
13.04.2017 01:16 9,4 C 9,4 C 8,3 C 88 % 0 lf 1012,8 hPa 0,0 l/m 0 min 0 min 0 W/m 20,9 km/h (4 Bft) 97,87 %
13.04.2017 01:18 9,4 C 9,4 C 8,3 C 87 % 0 lf 1012,7 hPa 0,0 l/m 0 min 0 min 0 W/m 23,0 km/h (4 Bft) 95,74 %
13.04.2017 01:20 9,4 C 9,4 C 8,3 C 87 % 0 lf 1012,8 hPa 0,0 l/m 0 min 0 min 0 W/m 23,0 km/h (4 Bft) 97,87 %
13.04.2017 01:22 9,4 C 9,4 C 8,3 C 87 % 0 lf 1012,8 hPa 0,0 l/m 0 min 0 min 0 W/m 25,1 km/h (4 Bft) 95,74 %
13.04.2017 01:24 9,4 C 9,4 C 7,8 C 87 % 0 lf 1012,6 hPa 0,0 l/m 0 min 0 min 0 W/m 25,1 km/h (4 Bft) 95,74 %
13.04.2017 01:26 9,4 C 9,4 C 7,8 C 87 % 0 lf 1012,6 hPa 0,0 l/m 0 min 0 min 0 W/m 23,0 km/h (4 Bft) 95,65 %
13.04.2017 01:28 9,4 C 9,4 C 7,8 C 87 % 0 lf 1012,6 hPa 0,0 l/m 0 min 0 min 0 W/m 23,0 km/h (4 Bft) 95,74 %
13.04.2017 01:30 9,4 C 9,4 C 7,8 C 87 % 0 lf 1012,6 hPa 0,0 l/m 0 min 0 min 0 W/m 23,0 km/h (4 Bft) 97,87 %
13.04.2017 01:32 9,4 C 9,4 C 7,8 C 87 % 0 lf 1012,7 hPa 0,0 l/m 0 min 0 min 0 W/m 31,4 km/h (5 Bft) 95,74 %
13.04.2017 01:34 9,4 C 9,4 C 7,8 C 87 % 0 lf 1012,6 hPa 0,0 l/m 0 min 0 min 0 W/m 25,1 km/h (4 Bft) 95,74 %
13.04.2017 01:36 9,4 C 9,4 C 7,8 C 87 % 0 lf 1012,5 hPa 0,0 l/m 0 min 0 min 0 W/m 23,0 km/h (4 Bft) 95,74 %
13.04.2017 01:38 9,4 C 9,4 C 7,8 C 87 % 0 lf 1012,6 hPa 0,0 l/m 0 min 0 min 0 W/m 23,0 km/h (4 Bft) 95,65 %
13.04.2017 01:40 9,4 C 9,4 C 8,3 C 87 % 0 lf 1012,6 hPa 0,0 l/m 0 min 0 min 0 W/m 25,1 km/h (4 Bft) 97,87 %
13.04.2017 01:42 9,4 C 9,4 C 8,3 C 87 % 0 lf 1012,5 hPa 0,0 l/m 0 min 0 min 0 W/m 23,0 km/h (4 Bft) 95,74 %
13.04.2017 01:44 9,4 C 9,4 C 8,3 C 87 % 0 lf 1012,5 hPa 0,0 l/m 0 min 0 min 0 W/m 20,9 km/h (4 Bft) 93,62 %
13.04.2017 01:46 9,4 C 9,4 C 7,8 C 87 % 0 lf 1012,5 hPa 0,0 l/m 0 min 0 min 0 W/m 27,2 km/h (4 Bft) 91,49 %
13.04.2017 01:48 9,4 C 9,4 C 7,8 C 87 % 0 lf 1012,5 hPa 0,0 l/m 0 min 0 min 0 W/m 18,8 km/h (3 Bft) 95,74 %
13.04.2017 01:50 9,4 C 9,4 C 7,8 C 87 % 0 lf 1012,4 hPa 0,0 l/m 0 min 0 min 0 W/m 23,0 km/h (4 Bft) 95,65 %
13.04.2017 01:52 9,4 C 9,4 C 7,8 C 87 % 0 lf 1012,4 hPa 0,0 l/m 0 min 0 min 0 W/m 23,0 km/h (4 Bft) 93,62 %
13.04.2017 01:54 9,4 C 9,4 C 7,8 C 87 % 0 lf 1012,4 hPa 0,0 l/m 0 min 0 min 0 W/m 16,7 km/h (3 Bft) 97,87 %
13.04.2017 01:56 9,4 C 9,4 C 7,8 C 87 % 0 lf 1012,4 hPa 0,0 l/m 0 min 0 min 0 W/m 16,7 km/h (3 Bft) 97,87 %
13.04.2017 01:58 9,4 C 8,9 C 7,2 C 86 % 0 lf 1012,3 hPa 0,0 l/m 0 min 0 min 0 W/m 18,8 km/h (3 Bft) 93,62 %
13.04.2017 02:00 9,3 C 8,9 C 7,2 C 87 % 0 lf 1012,4 hPa 0,0 l/m 0 min 0 min 0 W/m 23,0 km/h (4 Bft) 95,74 %
13.04.2017 02:02 9,3 C 8,9 C 7,2 C 87 % 0 lf 1012,4 hPa 0,0 l/m 0 min 0 min 0 W/m 18,8 km/h (3 Bft) 97,83 %
13.04.2017 02:04 9,3 C 8,9 C 7,2 C 87 % 0 lf 1012,4 hPa 0,0 l/m 0 min 0 min 0 W/m 14,6 km/h (3 Bft) 97,87 %
13.04.2017 02:06 9,2 C 8,9 C 7,2 C 87 % 0 lf 1012,5 hPa 0,0 l/m 0 min 0 min 0 W/m 23,0 km/h (4 Bft) 97,87 %
13.04.2017 02:08 9,2 C 8,9 C 7,2 C 87 % 0 lf 1012,4 hPa 0,0 l/m 0 min 0 min 0 W/m 18,8 km/h (3 Bft) 97,87 %
13.04.2017 02:10 9,2 C 8,9 C 7,8 C 87 % 0 lf 1012,4 hPa 0,0 l/m 0 min 0 min 0 W/m 18,8 km/h (3 Bft) 97,87 %
13.04.2017 02:12 9,2 C 8,9 C 7,8 C 87 % 0 lf 1012,4 hPa 0,0 l/m 0 min 0 min 0 W/m 18,8 km/h (3 Bft) 93,62 %
13.04.2017 02:14 9,2 C 8,9 C 7,8 C 87 % 0 lf 1012,3 hPa 0,0 l/m 0 min 0 min 0 W/m 14,6 km/h (3 Bft) 93,48 %
13.04.2017 02:16 9,2 C 8,9 C 7,8 C 87 % 0 lf 1012,3 hPa 0,0 l/m 0 min 0 min 0 W/m 18,8 km/h (3 Bft) 93,62 %
13.04.2017 02:18 9,2 C 8,9 C 7,8 C 87 % 0 lf 1012,4 hPa 0,0 l/m 0 min 0 min 0 W/m 12,6 km/h (3 Bft) 91,49 %
13.04.2017 02:20 9,2 C 9,4 C 7,8 C 87 % 0 lf 1012,4 hPa 0,0 l/m 0 min 0 min 0 W/m 14,6 km/h (3 Bft) 97,87 %
13.04.2017 02:22 9,1 C 8,9 C 7,8 C 87 % 0 lf 1012,4 hPa 0,0 l/m 0 min 0 min 0 W/m 16,7 km/h (3 Bft) 95,74 %
13.04.2017 02:24 9,1 C 8,9 C 7,2 C 87 % 0 lf 1012,3 hPa 0,0 l/m 0 min 0 min 0 W/m 16,7 km/h (3 Bft) 93,62 %
13.04.2017 02:26 9,1 C 8,9 C 7,2 C 87 % 0 lf 1012,4 hPa 0,0 l/m 0 min 0 min 0 W/m 10,5 km/h (2 Bft) 95,65 %
13.04.2017 02:28 9,1 C 8,9 C 7,2 C 87 % 0 lf 1012,3 hPa 0,0 l/m 0 min 0 min 0 W/m 14,6 km/h (3 Bft) 93,62 %
13.04.2017 02:30 9,1 C 8,9 C 7,8 C 87 % 0 lf 1012,3 hPa 0,0 l/m 0 min 0 min 0 W/m 14,6 km/h (3 Bft) 91,49 %
13.04.2017 02:32 9,1 C 8,9 C 7,8 C 87 % 0 lf 1012,4 hPa 0,0 l/m 0 min 0 min 0 W/m 16,7 km/h (3 Bft) 95,74 %
13.04.2017 02:34 9,1 C 8,9 C 7,8 C 87 % 0 lf 1012,3 hPa 0,0 l/m 0 min 0 min 0 W/m 16,7 km/h (3 Bft) 95,74 %
13.04.2017 02:36 9,1 C 9,4 C 7,8 C 87 % 0 lf 1012,3 hPa 0,0 l/m 0 min 0 min 0 W/m 14,6 km/h (3 Bft) 95,65 %
13.04.2017 02:38 9,1 C 9,4 C 7,8 C 87 % 0 lf 1012,3 hPa 0,0 l/m 0 min 0 min 0 W/m 12,6 km/h (3 Bft) 93,62 %
13.04.2017 02:40 9,1 C 9,4 C 7,8 C 87 % 1 lf 1012,3 hPa 0,0 l/m 0 min 0 min 0 W/m 16,7 km/h (3 Bft) 91,49 %
13.04.2017 02:42 9,1 C 8,9 C 7,8 C 87 % 2 lf 1012,4 hPa 0,0 l/m 0 min 2 min 0 W/m 6,3 km/h (2 Bft) 93,62 %
13.04.2017 02:44 9,1 C 8,9 C 7,8 C 88 % 2 lf 1012,3 hPa 0,0 l/m 0 min 0 min 0 W/m 14,6 km/h (3 Bft) 95,74 %
13.04.2017 02:46 9,1 C 8,9 C 7,8 C 88 % 1 lf 1012,4 hPa 0,0 l/m 0 min 0 min 0 W/m 14,6 km/h (3 Bft) 95,74 %
13.04.2017 02:48 9,1 C 8,9 C 7,8 C 88 % 1 lf 1012,4 hPa 0,0 l/m 0 min 0 min 0 W/m 12,6 km/h (3 Bft) 89,13 %
13.04.2017 02:50 9,1 C 8,9 C 7,8 C 88 % 0 lf 1012,3 hPa 0,0 l/m 0 min 0 min 0 W/m 14,6 km/h (3 Bft) 93,62 %
13.04.2017 02:52 9,1 C 8,9 C 7,8 C 88 % 0 lf 1012,4 hPa 0,0 l/m 0 min 0 min 0 W/m 12,6 km/h (3 Bft) 95,74 %
13.04.2017 02:54 9,1 C 8,9 C 7,8 C 88 % 0 lf 1012,4 hPa 0,0 l/m 0 min 0 min 0 W/m 14,6 km/h (3 Bft) 95,74 %
13.04.2017 02:56 9,1 C 9,4 C 7,8 C 88 % 0 lf 1012,4 hPa 0,0 l/m 0 min 0 min 0 W/m 25,1 km/h (4 Bft) 95,74 %
13.04.2017 02:58 9,1 C 9,4 C 7,8 C 88 % 0 lf 1012,4 hPa 0,0 l/m 0 min 0 min 0 W/m 18,8 km/h (3 Bft) 93,62 %
13.04.2017 03:00 9,1 C 9,4 C 7,8 C 88 % 0 lf 1012,4 hPa 0,0 l/m 0 min 0 min 0 W/m 18,8 km/h (3 Bft) 95,65 %
13.04.2017 03:02 9,1 C 9,4 C 7,8 C 88 % 0 lf 1012,5 hPa 0,0 l/m 0 min 0 min 0 W/m 18,8 km/h (3 Bft) 95,74 %
13.04.2017 03:04 9,1 C 9,4 C 7,8 C 88 % 0 lf 1012,5 hPa 0,0 l/m 0 min 0 min 0 W/m 10,5 km/h (2 Bft) 95,74 %
13.04.2017 03:06 9,1 C 9,4 C 7,8 C 88 % 0 lf 1012,4 hPa 0,0 l/m 0 min 0 min 0 W/m 18,8 km/h (3 Bft) 85,11 %
13.04.2017 03:08 9,2 C 9,4 C 7,8 C 88 % 0 lf 1012,3 hPa 0,0 l/m 0 min 0 min 0 W/m 25,1 km/h (4 Bft) 97,87 %
13.04.2017 03:10 9,2 C 9,4 C 8,3 C 88 % 0 lf 1012,4 hPa 0,0 l/m 0 min 0 min 0 W/m 18,8 km/h (3 Bft) 95,74 %
13.04.2017 03:12 9,2 C 9,4 C 8,3 C 88 % 0 lf 1012,4 hPa 0,0 l/m 0 min 0 min 0 W/m 14,6 km/h (3 Bft) 97,83 %
13.04.2017 03:14 9,2 C 9,4 C 8,3 C 88 % 1 lf 1012,4 hPa 0,0 l/m 0 min 0 min 0 W/m 12,6 km/h (3 Bft) 97,87 %
13.04.2017 03:16 9,2 C 9,4 C 8,3 C 88 % 0 lf 1012,4 hPa 0,0 l/m 0 min 0 min 0 W/m 14,6 km/h (3 Bft) 95,74 %
13.04.2017 03:18 9,2 C 9,4 C 8,3 C 88 % 0 lf 1012,3 hPa 0,0 l/m 0 min 0 min 0 W/m 12,6 km/h (3 Bft) 95,74 %
13.04.2017 03:20 9,2 C 9,4 C 8,3 C 88 % 0 lf 1012,3 hPa 0,0 l/m 0 min 0 min 0 W/m 10,5 km/h (2 Bft) 97,87 %
13.04.2017 03:22 9,2 C 9,4 C 8,3 C 88 % 0 lf 1012,2 hPa 0,0 l/m 0 min 0 min 0 W/m 8,4 km/h (2 Bft) 97,87 %
13.04.2017 03:24 9,3 C 9,4 C 7,8 C 88 % 0 lf 1012,2 hPa 0,0 l/m 0 min 0 min 0 W/m 6,3 km/h (2 Bft) 97,83 %
13.04.2017 03:26 9,3 C 9,4 C 7,8 C 88 % 0 lf 1012,2 hPa 0,0 l/m 0 min 0 min 0 W/m 10,5 km/h (2 Bft) 95,74 %
13.04.2017 03:28 9,3 C 9,4 C 8,3 C 88 % 0 lf 1012,3 hPa 0,0 l/m 0 min 0 min 0 W/m 16,7 km/h (3 Bft) 97,87 %
13.04.2017 03:30 9,3 C 9,4 C 8,3 C 88 % 0 lf 1012,3 hPa 0,0 l/m 0 min 0 min 0 W/m 12,6 km/h (3 Bft) 95,74 %
13.04.2017 03:32 9,3 C 9,4 C 8,3 C 88 % 0 lf 1012,3 hPa 0,0 l/m 0 min 0 min 0 W/m 12,6 km/h (3 Bft) 97,87 %
13.04.2017 03:34 9,3 C 9,4 C 8,3 C 88 % 0 lf 1012,2 hPa 0,0 l/m 0 min 0 min 0 W/m 12,6 km/h (3 Bft) 97,87 %
13.04.2017 03:36 9,3 C 9,4 C 8,3 C 88 % 0 lf 1012,1 hPa 0,0 l/m 0 min 0 min 0 W/m 12,6 km/h (3 Bft) 95,65 %
13.04.2017 03:38 9,3 C 9,4 C 8,3 C 88 % 0 lf 1012,1 hPa 0,0 l/m 0 min 0 min 0 W/m 14,6 km/h (3 Bft) 95,74 %
13.04.2017 03:40 9,3 C 9,4 C 8,3 C 88 % 0 lf 1012,1 hPa 0,0 l/m 0 min 0 min 0 W/m 12,6 km/h (3 Bft) 97,87 %
13.04.2017 03:42 9,3 C 9,4 C 8,3 C 88 % 0 lf 1012,1 hPa 0,0 l/m 0 min 0 min 0 W/m 14,6 km/h (3 Bft) 97,87 %
13.04.2017 03:44 9,3 C 9,4 C 8,3 C 88 % 0 lf 1012,1 hPa 0,0 l/m 0 min 0 min 0 W/m 16,7 km/h (3 Bft) 95,74 %
13.04.2017 03:46 9,3 C 9,4 C 8,3 C 88 % 0 lf 1012,2 hPa 0,0 l/m 0 min 0 min 0 W/m 10,5 km/h (2 Bft) 100,00 %
13.04.2017 03:48 9,3 C 9,4 C 8,3 C 88 % 0 lf 1012,2 hPa 0,0 l/m 0 min 0 min 0 W/m 18,8 km/h (3 Bft) 97,87 %
13.04.2017 03:50 9,3 C 9,4 C 8,3 C 88 % 0 lf 1012,1 hPa 0,0 l/m 0 min 0 min 0 W/m 12,6 km/h (3 Bft) 97,87 %
13.04.2017 03:52 9,4 C 9,4 C 8,3 C 88 % 1 lf 1012,2 hPa 0,0 l/m 0 min 0 min 0 W/m 25,1 km/h (4 Bft) 97,87 %
13.04.2017 03:54 9,4 C 9,4 C 8,3 C 88 % 0 lf 1012,1 hPa 0,0 l/m 0 min 0 min 0 W/m 14,6 km/h (3 Bft) 97,87 %
13.04.2017 03:56 9,4 C 9,4 C 8,3 C 88 % 0 lf 1012,1 hPa 0,0 l/m 0 min 0 min 0 W/m 23,0 km/h (4 Bft) 93,62 %
13.04.2017 03:58 9,4 C 9,4 C 8,3 C 88 % 2 lf 1012,1 hPa 0,0 l/m 0 min 2 min 0 W/m 14,6 km/h (3 Bft) 100,00 %
13.04.2017 04:00 9,4 C 9,4 C 7,8 C 88 % 2 lf 1012,2 hPa 0,0 l/m 0 min 2 min 0 W/m 14,6 km/h (3 Bft) 100,00 %
13.04.2017 04:02 9,4 C 9,4 C 7,8 C 88 % 2 lf 1012,1 hPa 0,0 l/m 0 min 2 min 0 W/m 16,7 km/h (3 Bft) 100,00 %
13.04.2017 04:04 9,4 C 9,4 C 7,8 C 88 % 8 lf 1012,2 hPa 0,0 l/m 0 min 2 min 0 W/m 20,9 km/h (4 Bft) 95,74 %
13.04.2017 04:06 9,4 C 9,4 C 7,8 C 88 % 13 lf 1012,1 hPa 0,0 l/m 0 min 2 min 0 W/m 20,9 km/h (4 Bft) 97,87 %
13.04.2017 04:08 9,4 C 9,4 C 7,8 C 89 % 13 lf 1012,1 hPa 0,0 l/m 0 min 2 min 0 W/m 16,7 km/h (3 Bft) 97,87 %
13.04.2017 04:10 9,4 C 9,4 C 7,8 C 89 % 15 lf 1012,1 hPa 0,0 l/m 0 min 2 min 0 W/m 16,7 km/h (3 Bft) 97,83 %
13.04.2017 04:12 9,4 C 9,4 C 7,8 C 89 % 15 lf 1012,1 hPa 0,0 l/m 0 min 0 min 0 W/m 16,7 km/h (3 Bft) 100,00 %
13.04.2017 04:14 9,4 C 8,9 C 7,2 C 89 % 15 lf 1012,1 hPa 0,0 l/m 0 min 2 min 0 W/m 10,5 km/h (2 Bft) 97,87 %
13.04.2017 04:16 9,4 C 8,9 C 7,2 C 89 % 15 lf 1012,0 hPa 0,0 l/m 0 min 2 min 0 W/m 10,5 km/h (2 Bft) 100,00 %
13.04.2017 04:18 9,4 C 8,9 C 7,2 C 89 % 15 lf 1012,1 hPa 0,0 l/m 0 min 2 min 0 W/m 14,6 km/h (3 Bft) 100,00 %
13.04.2017 04:20 9,4 C 8,9 C 7,2 C 89 % 15 lf 1012,0 hPa 0,0 l/m 0 min 2 min 0 W/m 14,6 km/h (3 Bft) 97,87 %
13.04.2017 04:22 9,4 C 8,9 C 7,2 C 90 % 15 lf 1012,0 hPa 0,0 l/m 0 min 2 min 0 W/m 10,5 km/h (2 Bft) 100,00 %
13.04.2017 04:24 9,3 C 8,3 C 7,2 C 90 % 15 lf 1012,1 hPa 0,0 l/m 0 min 2 min 0 W/m 12,6 km/h (3 Bft) 100,00 %
13.04.2017 04:26 9,3 C 8,3 C 7,2 C 90 % 15 lf 1012,1 hPa 0,0 l/m 0 min 0 min 0 W/m 14,6 km/h (3 Bft) 97,87 %
13.04.2017 04:28 9,3 C 8,3 C 7,2 C 90 % 15 lf 1012,1 hPa 0,0 l/m 0 min 0 min 0 W/m 20,9 km/h (4 Bft) 100,00 %
13.04.2017 04:30 9,3 C 8,3 C 7,2 C 90 % 15 lf 1012,1 hPa 0,2 l/m 0 min 0 min 0 W/m 18,8 km/h (3 Bft) 97,87 %
13.04.2017 04:32 9,3 C 8,3 C 7,2 C 90 % 15 lf 1012,1 hPa 0,0 l/m 0 min 0 min 0 W/m 14,6 km/h (3 Bft) 97,87 %
13.04.2017 04:34 9,2 C 8,3 C 7,2 C 90 % 15 lf 1012,0 hPa 0,0 l/m 0 min 0 min 0 W/m 18,8 km/h (3 Bft) 100,00 %
13.04.2017 04:36 9,2 C 8,3 C 6,7 C 91 % 15 lf 1012,1 hPa 0,0 l/m 0 min 0 min 0 W/m 10,5 km/h (2 Bft) 95,74 %
13.04.2017 04:38 9,2 C 8,3 C 6,7 C 91 % 15 lf 1012,1 hPa 0,0 l/m 0 min 0 min 0 W/m 18,8 km/h (3 Bft) 100,00 %
13.04.2017 04:40 9,2 C 8,3 C 6,7 C 91 % 15 lf 1012,1 hPa 0,0 l/m 0 min 0 min 0 W/m 14,6 km/h (3 Bft) 100,00 %
13.04.2017 04:42 9,1 C 8,3 C 6,7 C 91 % 15 lf 1012,1 hPa 0,0 l/m 0 min 0 min 0 W/m 12,6 km/h (3 Bft) 100,00 %
13.04.2017 04:44 9,1 C 8,3 C 6,7 C 91 % 15 lf 1012,0 hPa 0,0 l/m 0 min 0 min 0 W/m 12,6 km/h (3 Bft) 95,74 %
13.04.2017 04:46 9,1 C 7,8 C 6,7 C 91 % 15 lf 1012,1 hPa 0,0 l/m 0 min 0 min 0 W/m 12,6 km/h (3 Bft) 100,00 %
13.04.2017 04:48 9,0 C 7,8 C 6,7 C 91 % 15 lf 1012,0 hPa 0,0 l/m 0 min 0 min 0 W/m 12,6 km/h (3 Bft) 97,87 %
13.04.2017 04:50 8,9 C 7,8 C 6,7 C 91 % 15 lf 1012,1 hPa 0,0 l/m 0 min 0 min 0 W/m 14,6 km/h (3 Bft) 95,74 %
13.04.2017 04:52 8,9 C 7,8 C 6,7 C 91 % 15 lf 1012,1 hPa 0,0 l/m 0 min 0 min 0 W/m 12,6 km/h (3 Bft) 97,87 %
13.04.2017 04:54 8,9 C 8,3 C 6,7 C 91 % 15 lf 1012,0 hPa 0,0 l/m 0 min 0 min 0 W/m 16,7 km/h (3 Bft) 100,00 %
13.04.2017 04:56 8,9 C 8,3 C 6,7 C 91 % 15 lf 1012,0 hPa 0,0 l/m 0 min 0 min 0 W/m 16,7 km/h (3 Bft) 100,00 %
13.04.2017 04:58 8,8 C 8,3 C 6,7 C 91 % 15 lf 1012,1 hPa 0,0 l/m 0 min 0 min 0 W/m 16,7 km/h (3 Bft) 97,87 %
13.04.2017 05:00 8,8 C 8,3 C 6,7 C 92 % 15 lf 1012,1 hPa 0,0 l/m 0 min 0 min 0 W/m 18,8 km/h (3 Bft) 97,87 %
13.04.2017 05:02 8,8 C 8,3 C 6,7 C 92 % 15 lf 1012,1 hPa 0,0 l/m 0 min 0 min 0 W/m 12,6 km/h (3 Bft) 93,62 %
13.04.2017 05:04 8,7 C 8,3 C 6,7 C 92 % 15 lf 1012,1 hPa 0,0 l/m 0 min 0 min 0 W/m 12,6 km/h (3 Bft) 95,74 %
13.04.2017 05:06 8,7 C 8,3 C 6,7 C 92 % 15 lf 1012,1 hPa 0,0 l/m 0 min 0 min 0 W/m 12,6 km/h (3 Bft) 95,74 %
13.04.2017 05:08 8,7 C 8,3 C 6,7 C 92 % 15 lf 1012,1 hPa 0,0 l/m 0 min 0 min 0 W/m 12,6 km/h (3 Bft) 95,65 %
13.04.2017 05:10 8,7 C 8,3 C 6,7 C 92 % 15 lf 1012,1 hPa 0,0 l/m 0 min 0 min 0 W/m 18,8 km/h (3 Bft) 93,62 %
13.04.2017 05:12 8,7 C 8,3 C 6,7 C 92 % 15 lf 1012,0 hPa 0,0 l/m 0 min 0 min 0 W/m 16,7 km/h (3 Bft) 95,74 %
13.04.2017 05:14 8,7 C 8,3 C 6,7 C 92 % 15 lf 1012,0 hPa 0,0 l/m 0 min 0 min 0 W/m 18,8 km/h (3 Bft) 93,62 %
13.04.2017 05:16 8,7 C 8,3 C 6,7 C 92 % 15 lf 1012,0 hPa 0,0 l/m 0 min 0 min 0 W/m 14,6 km/h (3 Bft) 93,62 %
13.04.2017 05:18 8,6 C 8,3 C 6,1 C 92 % 15 lf 1012,0 hPa 0,0 l/m 0 min 0 min 0 W/m 16,7 km/h (3 Bft) 93,62 %
13.04.2017 05:20 8,6 C 8,3 C 6,1 C 92 % 15 lf 1012,1 hPa 0,0 l/m 0 min 0 min 0 W/m 16,7 km/h (3 Bft) 95,65 %
13.04.2017 05:22 8,6 C 8,3 C 6,7 C 93 % 15 lf 1012,0 hPa 0,0 l/m 0 min 0 min 0 W/m 16,7 km/h (3 Bft) 95,74 %
13.04.2017 05:24 8,6 C 8,3 C 6,1 C 93 % 15 lf 1012,0 hPa 0,0 l/m 0 min 0 min 0 W/m 10,5 km/h (2 Bft) 93,62 %
13.04.2017 05:26 8,6 C 8,3 C 6,1 C 93 % 15 lf 1012,0 hPa 0,0 l/m 0 min 0 min 0 W/m 14,6 km/h (3 Bft) 91,49 %
13.04.2017 05:28 8,5 C 7,8 C 6,1 C 93 % 15 lf 1012,0 hPa 0,0 l/m 0 min 0 min 0 W/m 10,5 km/h (2 Bft) 91,49 %
13.04.2017 05:30 8,5 C 7,8 C 6,1 C 93 % 15 lf 1012,0 hPa 0,0 l/m 0 min 0 min 0 W/m 14,6 km/h (3 Bft) 89,36 %
13.04.2017 05:32 8,5 C 8,3 C 6,1 C 93 % 15 lf 1012,1 hPa 0,0 l/m 0 min 0 min 0 W/m 16,7 km/h (3 Bft) 91,30 %
13.04.2017 05:34 8,4 C 7,8 C 6,1 C 93 % 15 lf 1012,1 hPa 0,0 l/m 0 min 0 min 0 W/m 8,4 km/h (2 Bft) 91,49 %
13.04.2017 05:36 8,4 C 7,8 C 6,1 C 93 % 15 lf 1012,0 hPa 0,0 l/m 0 min 0 min 0 W/m 10,5 km/h (2 Bft) 80,85 %
13.04.2017 05:38 8,4 C 8,3 C 6,7 C 93 % 15 lf 1012,2 hPa 0,0 l/m 0 min 0 min 0 W/m 14,6 km/h (3 Bft) 93,62 %
13.04.2017 05:40 8,4 C 8,3 C 6,7 C 93 % 15 lf 1012,2 hPa 0,0 l/m 0 min 0 min 0 W/m 8,4 km/h (2 Bft) 91,49 %
13.04.2017 05:42 8,4 C 8,3 C 6,7 C 93 % 15 lf 1012,1 hPa 0,0 l/m 0 min 0 min 0 W/m 12,6 km/h (3 Bft) 91,30 %
13.04.2017 05:44 8,4 C 8,3 C 6,7 C 93 % 15 lf 1012,2 hPa 0,0 l/m 0 min 0 min 0 W/m 10,5 km/h (2 Bft) 93,62 %
13.04.2017 05:46 8,4 C 8,3 C 6,1 C 93 % 15 lf 1012,1 hPa 0,0 l/m 0 min 0 min 0 W/m 12,6 km/h (3 Bft) 91,49 %
13.04.2017 05:48 8,4 C 8,3 C 6,7 C 93 % 15 lf 1012,1 hPa 0,0 l/m 0 min 0 min 0 W/m 12,6 km/h (3 Bft) 95,74 %
13.04.2017 05:50 8,4 C 8,3 C 6,7 C 93 % 15 lf 1012,2 hPa 0,0 l/m 0 min 0 min 0 W/m 16,7 km/h (3 Bft) 95,74 %
13.04.2017 05:52 8,4 C 8,3 C 6,7 C 93 % 15 lf 1012,2 hPa 0,0 l/m 0 min 0 min 0 W/m 16,7 km/h (3 Bft) 93,62 %
13.04.2017 05:54 8,4 C 8,3 C 6,7 C 94 % 15 lf 1012,2 hPa 0,0 l/m 0 min 0 min 0 W/m 14,6 km/h (3 Bft) 93,62 %
13.04.2017 05:56 8,4 C 8,3 C 6,7 C 94 % 15 lf 1012,1 hPa 0,0 l/m 0 min 0 min 0 W/m 10,5 km/h (2 Bft) 95,65 %
13.04.2017 05:58 8,4 C 8,3 C 6,7 C 94 % 15 lf 1012,0 hPa 0,0 l/m 0 min 0 min 0 W/m 14,6 km/h (3 Bft) 91,49 %
13.04.2017 06:00 8,4 C 8,3 C 6,7 C 94 % 15 lf 1012,1 hPa 0,0 l/m 0 min 0 min 0 W/m 16,7 km/h (3 Bft) 93,62 %
13.04.2017 06:02 8,4 C 8,3 C 6,7 C 94 % 15 lf 1012,1 hPa 0,0 l/m 0 min 0 min 0 W/m 16,7 km/h (3 Bft) 93,62 %
13.04.2017 06:04 8,4 C 8,3 C 6,7 C 94 % 15 lf 1012,1 hPa 0,0 l/m 0 min 0 min 0 W/m 10,5 km/h (2 Bft) 93,62 %
13.04.2017 06:06 8,4 C 8,3 C 6,7 C 94 % 15 lf 1012,1 hPa 0,0 l/m 0 min 0 min 0 W/m 12,6 km/h (3 Bft) 95,65 %
13.04.2017 06:08 8,4 C 8,3 C 6,7 C 94 % 15 lf 1012,2 hPa 0,0 l/m 0 min 0 min 0 W/m 14,6 km/h (3 Bft) 93,62 %
13.04.2017 06:10 8,4 C 8,3 C 6,7 C 94 % 15 lf 1012,1 hPa 0,0 l/m 0 min 0 min 0 W/m 16,7 km/h (3 Bft) 93,62 %
13.04.2017 06:12 8,4 C 8,3 C 6,7 C 94 % 15 lf 1012,2 hPa 0,0 l/m 0 min 0 min 0 W/m 14,6 km/h (3 Bft) 93,62 %
13.04.2017 06:14 8,4 C 8,3 C 6,7 C 94 % 15 lf 1012,2 hPa 0,0 l/m 0 min 0 min 0 W/m 14,6 km/h (3 Bft) 95,74 %
13.04.2017 06:16 8,4 C 8,3 C 6,7 C 94 % 15 lf 1012,1 hPa 0,0 l/m 0 min 0 min 0 W/m 20,9 km/h (4 Bft) 95,74 %
13.04.2017 06:18 8,4 C 8,3 C 6,7 C 94 % 15 lf 1012,2 hPa 0,0 l/m 0 min 0 min 0 W/m 12,6 km/h (3 Bft) 97,83 %
13.04.2017 06:20 8,4 C 8,3 C 6,7 C 94 % 15 lf 1012,2 hPa 0,0 l/m 0 min 0 min 0 W/m 12,6 km/h (3 Bft) 93,62 %
13.04.2017 06:22 8,4 C 8,3 C 6,7 C 94 % 15 lf 1012,2 hPa 0,0 l/m 0 min 0 min 0 W/m 14,6 km/h (3 Bft) 95,74 %
13.04.2017 06:24 8,4 C 8,3 C 6,7 C 94 % 15 lf 1012,3 hPa 0,0 l/m 0 min 0 min 0 W/m 12,6 km/h (3 Bft) 97,87 %
13.04.2017 06:26 8,4 C 8,3 C 6,7 C 94 % 15 lf 1012,2 hPa 0,0 l/m 0 min 0 min 0 W/m 8,4 km/h (2 Bft) 95,74 %
13.04.2017 06:28 8,4 C 8,3 C 6,7 C 94 % 15 lf 1012,2 hPa 0,0 l/m 0 min 0 min 0 W/m 16,7 km/h (3 Bft) 95,74 %
13.04.2017 06:30 8,4 C 8,3 C 6,7 C 94 % 15 lf 1012,2 hPa 0,0 l/m 0 min 0 min 0 W/m 12,6 km/h (3 Bft) 97,83 %
13.04.2017 06:32 8,4 C 8,3 C 6,7 C 94 % 14 lf 1012,2 hPa 0,0 l/m 0 min 0 min 3 W/m 12,6 km/h (3 Bft) 97,87 %
13.04.2017 06:34 8,4 C 8,3 C 6,7 C 94 % 14 lf 1012,2 hPa 0,0 l/m 0 min 0 min 5 W/m 16,7 km/h (3 Bft) 100,00 %
13.04.2017 06:36 8,4 C 8,3 C 6,7 C 94 % 13 lf 1012,2 hPa 0,0 l/m 0 min 0 min 5 W/m 16,7 km/h (3 Bft) 100,00 %
13.04.2017 06:38 8,4 C 8,3 C 6,7 C 94 % 13 lf 1012,2 hPa 0,0 l/m 0 min 0 min 5 W/m 14,6 km/h (3 Bft) 100,00 %
13.04.2017 06:40 8,4 C 8,3 C 6,7 C 94 % 12 lf 1012,3 hPa 0,0 l/m 0 min 0 min 7 W/m 12,6 km/h (3 Bft) 100,00 %
13.04.2017 06:42 8,4 C 8,3 C 6,1 C 94 % 11 lf 1012,3 hPa 0,0 l/m 0 min 0 min 7 W/m 14,6 km/h (3 Bft) 93,48 %
13.04.2017 06:44 8,3 C 8,3 C 6,1 C 94 % 11 lf 1012,3 hPa 0,0 l/m 0 min 0 min 7 W/m 14,6 km/h (3 Bft) 95,74 %
13.04.2017 06:46 8,3 C 7,8 C 6,1 C 94 % 10 lf 1012,3 hPa 0,0 l/m 0 min 0 min 9 W/m 12,6 km/h (3 Bft) 97,87 %
13.04.2017 06:48 8,3 C 7,8 C 6,1 C 94 % 9 lf 1012,3 hPa 0,0 l/m 0 min 0 min 9 W/m 14,6 km/h (3 Bft) 100,00 %
13.04.2017 06:50 8,3 C 7,8 C 6,1 C 94 % 8 lf 1012,3 hPa 0,0 l/m 0 min 0 min 10 W/m 12,6 km/h (3 Bft) 95,74 %
13.04.2017 06:52 8,2 C 7,8 C 6,1 C 94 % 7 lf 1012,4 hPa 0,0 l/m 0 min 0 min 11 W/m 16,7 km/h (3 Bft) 97,83 %
13.04.2017 06:54 8,2 C 7,8 C 6,1 C 94 % 5 lf 1012,5 hPa 0,0 l/m 0 min 0 min 11 W/m 16,7 km/h (3 Bft) 97,87 %
13.04.2017 06:56 8,2 C 7,8 C 6,1 C 94 % 4 lf 1012,5 hPa 0,0 l/m 0 min 0 min 11 W/m 14,6 km/h (3 Bft) 100,00 %
13.04.2017 06:58 8,2 C 7,8 C 6,1 C 94 % 4 lf 1012,5 hPa 0,0 l/m 0 min 0 min 12 W/m 18,8 km/h (3 Bft) 97,87 %
13.04.2017 07:00 8,1 C 7,8 C 6,7 C 94 % 3 lf 1012,6 hPa 0,0 l/m 0 min 0 min 12 W/m 14,6 km/h (3 Bft) 97,87 %
13.04.2017 07:02 8,2 C 8,3 C 6,7 C 94 % 2 lf 1012,6 hPa 0,0 l/m 0 min 0 min 11 W/m 16,7 km/h (3 Bft) 93,62 %
13.04.2017 07:04 8,1 C 8,3 C 6,7 C 94 % 2 lf 1012,6 hPa 0,0 l/m 0 min 0 min 12 W/m 14,6 km/h (3 Bft) 97,87 %
13.04.2017 07:06 8,1 C 8,3 C 6,7 C 95 % 1 lf 1012,6 hPa 0,0 l/m 0 min 0 min 15 W/m 16,7 km/h (3 Bft) 97,83 %
13.04.2017 07:08 8,1 C 8,3 C 6,7 C 95 % 1 lf 1012,6 hPa 0,0 l/m 0 min 0 min 15 W/m 16,7 km/h (3 Bft) 97,87 %
13.04.2017 07:10 8,1 C 8,3 C 6,7 C 95 % 1 lf 1012,6 hPa 0,0 l/m 0 min 0 min 16 W/m 14,6 km/h (3 Bft) 97,87 %
13.04.2017 07:12 8,2 C 8,3 C 6,7 C 95 % 1 lf 1012,6 hPa 0,0 l/m 0 min 0 min 20 W/m 16,7 km/h (3 Bft) 97,87 %
13.04.2017 07:14 8,1 C 8,3 C 6,7 C 95 % 1 lf 1012,7 hPa 0,0 l/m 0 min 0 min 24 W/m 12,6 km/h (3 Bft) 97,87 %
13.04.2017 07:16 8,1 C 8,3 C 6,7 C 95 % 1 lf 1012,7 hPa 0,0 l/m 0 min 0 min 28 W/m 12,6 km/h (3 Bft) 95,65 %
13.04.2017 07:18 8,1 C 8,3 C 6,7 C 95 % 1 lf 1012,8 hPa 0,0 l/m 0 min 0 min 30 W/m 23,0 km/h (4 Bft) 94,55 %
13.04.2017 07:20 8,1 C 8,3 C 6,7 C 95 % 1 lf 1012,8 hPa 0,0 l/m 0 min 0 min 30 W/m 23,0 km/h (4 Bft) 97,87 %
13.04.2017 07:22 8,1 C 8,3 C 6,7 C 94 % 1 lf 1012,8 hPa 0,0 l/m 0 min 0 min 26 W/m 12,6 km/h (3 Bft) 97,87 %
13.04.2017 07:24 8,1 C 8,3 C 6,7 C 94 % 1 lf 1012,8 hPa 0,0 l/m 0 min 0 min 27 W/m 18,8 km/h (3 Bft) 95,74 %
13.04.2017 07:26 8,1 C 8,3 C 6,7 C 94 % 1 lf 1012,8 hPa 0,0 l/m 0 min 0 min 29 W/m 23,0 km/h (4 Bft) 93,62 %
13.04.2017 07:28 8,0 C 8,3 C 6,7 C 94 % 1 lf 1012,8 hPa 0,0 l/m 0 min 0 min 34 W/m 14,6 km/h (3 Bft) 95,74 %
13.04.2017 07:30 8,1 C 8,3 C 6,1 C 94 % 1 lf 1012,8 hPa 0,0 l/m 0 min 0 min 37 W/m 12,6 km/h (3 Bft) 97,87 %
13.04.2017 07:32 8,0 C 8,3 C 6,1 C 94 % 1 lf 1012,8 hPa 0,0 l/m 0 min 0 min 40 W/m 12,6 km/h (3 Bft) 100,00 %
13.04.2017 07:34 7,9 C 8,3 C 6,1 C 94 % 1 lf 1012,9 hPa 0,0 l/m 0 min 0 min 50 W/m 20,9 km/h (4 Bft) 95,74 %
13.04.2017 07:36 7,9 C 8,3 C 6,7 C 94 % 1 lf 1012,9 hPa 0,0 l/m 0 min 0 min 57 W/m 14,6 km/h (3 Bft) 97,87 %
13.04.2017 07:38 7,9 C 8,3 C 6,7 C 94 % 1 lf 1012,9 hPa 0,0 l/m 0 min 0 min 61 W/m 14,6 km/h (3 Bft) 97,87 %
13.04.2017 07:40 7,9 C 8,3 C 6,7 C 94 % 1 lf 1012,9 hPa 0,0 l/m 2 min 0 min 73 W/m 14,6 km/h (3 Bft) 97,87 %
13.04.2017 07:42 7,9 C 8,3 C 6,7 C 94 % 1 lf 1013,0 hPa 0,0 l/m 0 min 0 min 67 W/m 14,6 km/h (3 Bft) 97,83 %
13.04.2017 07:44 7,9 C 8,3 C 6,7 C 95 % 1 lf 1013,0 hPa 0,0 l/m 0 min 0 min 54 W/m 16,7 km/h (3 Bft) 95,74 %
13.04.2017 07:46 7,9 C 8,3 C 6,7 C 95 % 1 lf 1013,0 hPa 0,0 l/m 0 min 0 min 53 W/m 16,7 km/h (3 Bft) 97,87 %
13.04.2017 07:48 7,9 C 8,3 C 6,7 C 95 % 1 lf 1013,0 hPa 0,0 l/m 0 min 0 min 68 W/m 20,9 km/h (4 Bft) 97,87 %
13.04.2017 07:50 7,9 C 8,3 C 6,7 C 95 % 1 lf 1013,0 hPa 0,0 l/m 2 min 0 min 96 W/m 14,6 km/h (3 Bft) 91,49 %
13.04.2017 07:52 7,8 C 8,3 C 6,7 C 95 % 1 lf 1013,0 hPa 0,0 l/m 2 min 0 min 100 W/m 12,6 km/h (3 Bft) 95,74 %
13.04.2017 07:54 7,8 C 8,3 C 6,7 C 95 % 1 lf 1013,1 hPa 0,0 l/m 2 min 0 min 104 W/m 16,7 km/h (3 Bft) 97,83 %
13.04.2017 07:56 7,8 C 8,3 C 6,7 C 95 % 1 lf 1013,1 hPa 0,0 l/m 0 min 0 min 66 W/m 16,7 km/h (3 Bft) 97,87 %
13.04.2017 07:58 7,8 C 8,3 C 6,7 C 95 % 1 lf 1013,0 hPa 0,0 l/m 0 min 0 min 76 W/m 14,6 km/h (3 Bft) 97,87 %
13.04.2017 08:00 7,8 C 8,3 C 6,7 C 95 % 1 lf 1013,0 hPa 0,0 l/m 2 min 0 min 148 W/m 12,6 km/h (3 Bft) 97,87 %
13.04.2017 08:02 7,8 C 8,3 C 6,7 C 95 % 1 lf 1013,1 hPa 0,0 l/m 2 min 0 min 157 W/m 14,6 km/h (3 Bft) 94,44 %
13.04.2017 08:04 7,8 C 8,3 C 6,7 C 95 % 1 lf 1013,1 hPa 0,0 l/m 2 min 0 min 149 W/m 12,6 km/h (3 Bft) 95,74 %
13.04.2017 08:06 7,8 C 8,9 C 7,2 C 95 % 0 lf 1013,1 hPa 0,0 l/m 2 min 0 min 176 W/m 25,1 km/h (4 Bft) 91,49 %
13.04.2017 08:08 7,8 C 8,9 C 7,2 C 95 % 0 lf 1013,2 hPa 0,0 l/m 2 min 0 min 192 W/m 16,7 km/h (3 Bft) 97,83 %
13.04.2017 08:10 7,9 C 8,9 C 7,2 C 95 % 0 lf 1013,3 hPa 0,0 l/m 2 min 0 min 149 W/m 18,8 km/h (3 Bft) 97,87 %
13.04.2017 08:12 7,9 C 8,9 C 7,2 C 95 % 0 lf 1013,3 hPa 0,0 l/m 2 min 0 min 137 W/m 10,5 km/h (2 Bft) 93,75 %
13.04.2017 08:14 7,9 C 8,9 C 7,2 C 95 % 0 lf 1013,3 hPa 0,0 l/m 0 min 0 min 103 W/m 18,8 km/h (3 Bft) 97,87 %
13.04.2017 08:16 7,9 C 8,9 C 7,2 C 95 % 0 lf 1013,3 hPa 0,0 l/m 0 min 0 min 75 W/m 12,6 km/h (3 Bft) 97,87 %
13.04.2017 08:18 7,9 C 8,9 C 7,2 C 95 % 0 lf 1013,4 hPa 0,0 l/m 0 min 0 min 76 W/m 16,7 km/h (3 Bft) 97,87 %
13.04.2017 08:20 7,9 C 8,9 C 7,2 C 95 % 0 lf 1013,3 hPa 0,0 l/m 0 min 0 min 88 W/m 18,8 km/h (3 Bft) 100,00 %
13.04.2017 08:22 7,9 C 8,9 C 7,2 C 94 % 0 lf 1013,4 hPa 0,0 l/m 0 min 0 min 103 W/m 14,6 km/h (3 Bft) 100,00 %
13.04.2017 08:24 7,9 C 8,9 C 7,2 C 94 % 0 lf 1013,4 hPa 0,0 l/m 0 min 0 min 101 W/m 16,7 km/h (3 Bft) 100,00 %
13.04.2017 08:26 8,0 C 8,9 C 7,2 C 94 % 0 lf 1013,5 hPa 0,0 l/m 2 min 0 min 152 W/m 12,6 km/h (3 Bft) 97,87 %
13.04.2017 08:28 8,0 C 8,9 C 7,2 C 94 % 0 lf 1013,5 hPa 0,0 l/m 0 min 0 min 86 W/m 20,9 km/h (4 Bft) 97,87 %
13.04.2017 08:30 8,0 C 8,9 C 7,2 C 94 % 0 lf 1013,5 hPa 0,0 l/m 0 min 0 min 123 W/m 14,6 km/h (3 Bft) 93,62 %
13.04.2017 08:32 8,0 C 8,9 C 7,2 C 94 % 0 lf 1013,5 hPa 0,0 l/m 0 min 0 min 123 W/m 12,6 km/h (3 Bft) 97,87 %
13.04.2017 08:34 8,0 C 9,4 C 7,2 C 94 % 0 lf 1013,5 hPa 0,0 l/m 2 min 0 min 165 W/m 14,6 km/h (3 Bft) 95,74 %
13.04.2017 08:36 8,0 C 9,4 C 7,8 C 94 % 0 lf 1013,6 hPa 0,0 l/m 2 min 0 min 208 W/m 10,5 km/h (2 Bft) 93,62 %
13.04.2017 08:38 8,1 C 10,0 C 8,3 C 94 % 0 lf 1013,6 hPa 0,0 l/m 2 min 0 min 213 W/m 18,8 km/h (3 Bft) 97,87 %
13.04.2017 08:40 8,1 C 10,0 C 8,3 C 94 % 0 lf 1013,6 hPa 0,0 l/m 2 min 0 min 204 W/m 18,8 km/h (3 Bft) 97,87 %
13.04.2017 08:42 8,2 C 10,0 C 8,3 C 94 % 0 lf 1013,6 hPa 0,0 l/m 2 min 0 min 162 W/m 20,9 km/h (4 Bft) 97,87 %
13.04.2017 08:44 8,2 C 10,0 C 8,9 C 94 % 0 lf 1013,7 hPa 0,0 l/m 0 min 0 min 148 W/m 20,9 km/h (4 Bft) 97,87 %
13.04.2017 08:46 8,3 C 10,6 C 8,9 C 94 % 0 lf 1013,7 hPa 0,0 l/m 2 min 0 min 195 W/m 12,6 km/h (3 Bft) 91,49 %
13.04.2017 08:48 8,3 C 10,6 C 8,3 C 94 % 0 lf 1013,7 hPa 0,0 l/m 0 min 0 min 153 W/m 16,7 km/h (3 Bft) 95,74 %
13.04.2017 08:50 8,4 C 10,6 C 8,9 C 94 % 0 lf 1013,7 hPa 0,0 l/m 2 min 0 min 187 W/m 14,6 km/h (3 Bft) 97,83 %
13.04.2017 08:52 8,4 C 11,1 C 8,9 C 94 % 0 lf 1013,7 hPa 0,0 l/m 2 min 0 min 173 W/m 10,5 km/h (2 Bft) 93,62 %
13.04.2017 08:54 8,5 C 11,1 C 9,4 C 94 % 0 lf 1013,8 hPa 0,0 l/m 2 min 0 min 191 W/m 20,9 km/h (4 Bft) 97,87 %
13.04.2017 08:56 8,6 C 11,7 C 9,4 C 94 % 0 lf 1013,8 hPa 0,0 l/m 2 min 0 min 190 W/m 16,7 km/h (3 Bft) 95,74 %
13.04.2017 08:58 8,6 C 10,6 C 9,4 C 94 % 0 lf 1013,8 hPa 0,0 l/m 0 min 0 min 136 W/m 10,5 km/h (2 Bft) 93,62 %
13.04.2017 09:00 8,7 C 11,1 C 9,4 C 94 % 0 lf 1013,9 hPa 0,0 l/m 2 min 0 min 171 W/m 16,7 km/h (3 Bft) 95,74 %
13.04.2017 09:02 8,7 C 11,1 C 9,4 C 94 % 0 lf 1013,9 hPa 0,0 l/m 2 min 0 min 194 W/m 16,7 km/h (3 Bft) 93,48 %
13.04.2017 09:04 8,7 C 11,7 C 9,4 C 94 % 0 lf 1013,8 hPa 0,0 l/m 2 min 0 min 216 W/m 16,7 km/h (3 Bft) 97,87 %
13.04.2017 09:06 8,8 C 12,2 C 9,4 C 94 % 0 lf 1013,9 hPa 0,0 l/m 2 min 0 min 323 W/m 20,9 km/h (4 Bft) 93,62 %
13.04.2017 09:08 8,8 C 11,7 C 9,4 C 94 % 0 lf 1013,8 hPa 0,0 l/m 2 min 0 min 211 W/m 16,7 km/h (3 Bft) 93,62 %
13.04.2017 09:10 8,8 C 11,1 C 9,4 C 94 % 0 lf 1013,7 hPa 0,0 l/m 0 min 0 min 173 W/m 27,2 km/h (4 Bft) 95,74 %
13.04.2017 09:12 8,9 C 11,1 C 9,4 C 93 % 0 lf 1013,8 hPa 0,0 l/m 0 min 0 min 176 W/m 25,1 km/h (4 Bft) 95,74 %
13.04.2017 09:14 8,9 C 11,1 C 9,4 C 93 % 0 lf 1013,8 hPa 0,0 l/m 2 min 0 min 189 W/m 18,8 km/h (3 Bft) 93,48 %
13.04.2017 09:16 8,9 C 11,7 C 10,0 C 93 % 0 lf 1013,8 hPa 0,0 l/m 2 min 0 min 197 W/m 12,6 km/h (3 Bft) 91,49 %
13.04.2017 09:18 9,0 C 11,7 C 9,4 C 93 % 0 lf 1013,8 hPa 0,0 l/m 0 min 0 min 188 W/m 14,6 km/h (3 Bft) 95,74 %
13.04.2017 09:20 9,0 C 12,2 C 10,0 C 92 % 0 lf 1013,8 hPa 0,0 l/m 2 min 0 min 264 W/m 14,6 km/h (3 Bft) 97,87 %
13.04.2017 09:22 9,1 C 12,2 C 10,0 C 92 % 0 lf 1013,8 hPa 0,0 l/m 2 min 0 min 229 W/m 25,1 km/h (4 Bft) 93,62 %
13.04.2017 09:24 9,1 C 12,2 C 10,0 C 92 % 0 lf 1013,9 hPa 0,0 l/m 2 min 0 min 261 W/m 23,0 km/h (4 Bft) 97,87 %
13.04.2017 09:26 9,1 C 12,2 C 10,0 C 92 % 0 lf 1013,8 hPa 0,0 l/m 2 min 0 min 245 W/m 23,0 km/h (4 Bft) 97,83 %
13.04.2017 09:28 9,2 C 12,2 C 10,0 C 92 % 0 lf 1013,9 hPa 0,0 l/m 2 min 0 min 216 W/m 18,8 km/h (3 Bft) 97,87 %
13.04.2017 09:30 9,2 C 11,7 C 10,0 C 91 % 0 lf 1013,9 hPa 0,0 l/m 0 min 0 min 202 W/m 25,1 km/h (4 Bft) 93,62 %
13.04.2017 09:32 9,2 C 11,7 C 10,0 C 91 % 0 lf 1013,9 hPa 0,0 l/m 0 min 0 min 197 W/m 20,9 km/h (4 Bft) 97,87 %
13.04.2017 09:34 9,2 C 11,7 C 10,0 C 91 % 0 lf 1014,0 hPa 0,0 l/m 2 min 0 min 213 W/m 16,7 km/h (3 Bft) 97,87 %
13.04.2017 09:36 9,3 C 11,7 C 10,6 C 91 % 0 lf 1014,0 hPa 0,0 l/m 0 min 0 min 200 W/m 16,7 km/h (3 Bft) 97,83 %
13.04.2017 09:38 9,3 C 12,2 C 10,6 C 91 % 0 lf 1014,0 hPa 0,0 l/m 0 min 0 min 196 W/m 12,6 km/h (3 Bft) 97,87 %
13.04.2017 09:40 9,4 C 12,2 C 10,6 C 90 % 0 lf 1014,0 hPa 0,0 l/m 0 min 0 min 171 W/m 14,6 km/h (3 Bft) 97,87 %
13.04.2017 09:42 9,4 C 11,7 C 10,6 C 90 % 0 lf 1014,0 hPa 0,0 l/m 0 min 0 min 182 W/m 23,0 km/h (4 Bft) 95,74 %
13.04.2017 09:44 9,4 C 11,7 C 10,6 C 90 % 0 lf 1014,0 hPa 0,0 l/m 0 min 0 min 194 W/m 20,9 km/h (4 Bft) 95,74 %
13.04.2017 09:46 9,5 C 12,2 C 10,6 C 90 % 0 lf 1014,1 hPa 0,0 l/m 0 min 0 min 199 W/m 18,8 km/h (3 Bft) 97,87 %
13.04.2017 09:48 9,6 C 12,2 C 10,6 C 90 % 0 lf 1014,1 hPa 0,0 l/m 0 min 0 min 207 W/m 12,6 km/h (3 Bft) 93,48 %
13.04.2017 09:50 9,6 C 12,2 C 10,6 C 89 % 0 lf 1014,1 hPa 0,0 l/m 2 min 0 min 252 W/m 18,8 km/h (3 Bft) 91,49 %
13.04.2017 09:52 9,6 C 12,8 C 11,1 C 89 % 0 lf 1014,1 hPa 0,0 l/m 2 min 0 min 293 W/m 29,3 km/h (5 Bft) 97,87 %
13.04.2017 09:54 9,7 C 13,3 C 11,7 C 89 % 0 lf 1014,1 hPa 0,0 l/m 2 min 0 min 290 W/m 16,7 km/h (3 Bft) 93,62 %
13.04.2017 09:56 9,7 C 13,9 C 11,7 C 89 % 0 lf 1014,1 hPa 0,0 l/m 2 min 0 min 303 W/m 25,1 km/h (4 Bft) 93,62 %
13.04.2017 09:58 9,8 C 13,3 C 11,7 C 88 % 0 lf 1014,1 hPa 0,0 l/m 2 min 0 min 299 W/m 23,0 km/h (4 Bft) 97,87 %
13.04.2017 10:00 9,8 C 13,9 C 11,7 C 88 % 0 lf 1014,1 hPa 0,0 l/m 2 min 0 min 262 W/m 25,1 km/h (4 Bft) 97,83 %
13.04.2017 10:02 9,9 C 13,3 C 11,7 C 88 % 0 lf 1014,2 hPa 0,0 l/m 0 min 0 min 204 W/m 18,8 km/h (3 Bft) 95,74 %
13.04.2017 10:04 9,9 C 12,8 C 11,1 C 87 % 0 lf 1014,2 hPa 0,0 l/m 0 min 0 min 194 W/m 25,1 km/h (4 Bft) 95,74 %
13.04.2017 10:06 9,9 C 12,2 C 11,1 C 87 % 0 lf 1014,2 hPa 0,0 l/m 0 min 0 min 191 W/m 23,0 km/h (4 Bft) 93,62 %
13.04.2017 10:08 10,0 C 12,8 C 11,1 C 87 % 0 lf 1014,2 hPa 0,0 l/m 0 min 0 min 241 W/m 18,8 km/h (3 Bft) 95,74 %
13.04.2017 10:10 10,1 C 12,8 C 11,7 C 87 % 0 lf 1014,3 hPa 0,0 l/m 0 min 0 min 230 W/m 25,1 km/h (4 Bft) 97,87 %
13.04.2017 10:12 10,1 C 12,8 C 11,7 C 86 % 0 lf 1014,3 hPa 0,0 l/m 0 min 0 min 221 W/m 18,8 km/h (3 Bft) 91,30 %
13.04.2017 10:14 10,1 C 12,8 C 11,7 C 86 % 0 lf 1014,3 hPa 0,0 l/m 0 min 0 min 246 W/m 18,8 km/h (3 Bft) 95,74 %
13.04.2017 10:16 10,2 C 13,3 C 11,7 C 86 % 0 lf 1014,3 hPa 0,0 l/m 0 min 0 min 256 W/m 23,0 km/h (4 Bft) 95,74 %
13.04.2017 10:18 10,2 C 13,3 C 12,2 C 86 % 0 lf 1014,3 hPa 0,0 l/m 2 min 0 min 315 W/m 23,0 km/h (4 Bft) 95,74 %
13.04.2017 10:20 10,3 C 14,4 C 12,2 C 85 % 0 lf 1014,3 hPa 0,0 l/m 2 min 0 min 330 W/m 20,9 km/h (4 Bft) 95,74 %
13.04.2017 10:22 10,3 C 13,9 C 12,2 C 85 % 0 lf 1014,4 hPa 0,0 l/m 2 min 0 min 305 W/m 25,1 km/h (4 Bft) 93,62 %
13.04.2017 10:24 10,3 C 13,9 C 12,2 C 84 % 0 lf 1014,4 hPa 0,0 l/m 2 min 0 min 285 W/m 25,1 km/h (4 Bft) 91,30 %
13.04.2017 10:26 10,4 C 12,8 C 12,2 C 84 % 0 lf 1014,5 hPa 0,0 l/m 0 min 0 min 211 W/m 20,9 km/h (4 Bft) 91,49 %
13.04.2017 10:28 10,4 C 12,8 C 11,7 C 84 % 0 lf 1014,4 hPa 0,0 l/m 0 min 0 min 187 W/m 18,8 km/h (3 Bft) 97,87 %
13.04.2017 10:30 10,4 C 12,8 C 11,7 C 83 % 0 lf 1014,6 hPa 0,0 l/m 0 min 0 min 231 W/m 18,8 km/h (3 Bft) 97,87 %
13.04.2017 10:32 10,4 C 12,8 C 11,7 C 83 % 0 lf 1014,5 hPa 0,0 l/m 0 min 0 min 253 W/m 35,6 km/h (5 Bft) 97,87 %
13.04.2017 10:34 10,4 C 12,8 C 11,7 C 83 % 0 lf 1014,5 hPa 0,0 l/m 0 min 0 min 265 W/m 18,8 km/h (3 Bft) 97,87 %
13.04.2017 10:36 10,5 C 12,8 C 12,2 C 83 % 0 lf 1014,5 hPa 0,0 l/m 0 min 0 min 239 W/m 18,8 km/h (3 Bft) 95,65 %
13.04.2017 10:38 10,5 C 12,8 C 12,2 C 83 % 0 lf 1014,5 hPa 0,0 l/m 0 min 0 min 250 W/m 23,0 km/h (4 Bft) 97,87 %
13.04.2017 10:40 10,5 C 12,8 C 12,2 C 83 % 0 lf 1014,6 hPa 0,0 l/m 0 min 0 min 260 W/m 20,9 km/h (4 Bft) 97,87 %
13.04.2017 10:42 10,6 C 12,8 C 12,2 C 83 % 0 lf 1014,6 hPa 0,0 l/m 0 min 0 min 268 W/m 25,1 km/h (4 Bft) 95,74 %
13.04.2017 10:44 10,6 C 12,8 C 12,2 C 82 % 0 lf 1014,6 hPa 0,0 l/m 0 min 0 min 269 W/m 25,1 km/h (4 Bft) 93,62 %
13.04.2017 10:46 10,6 C 12,8 C 12,2 C 82 % 0 lf 1014,7 hPa 0,0 l/m 0 min 0 min 264 W/m 29,3 km/h (5 Bft) 97,83 %
13.04.2017 10:48 10,6 C 13,3 C 12,2 C 81 % 0 lf 1014,7 hPa 0,0 l/m 0 min 0 min 266 W/m 23,0 km/h (4 Bft) 97,87 %
13.04.2017 10:50 10,7 C 13,3 C 12,2 C 81 % 0 lf 1014,6 hPa 0,0 l/m 0 min 0 min 239 W/m 27,2 km/h (4 Bft) 95,74 %
13.04.2017 10:52 10,7 C 13,9 C 12,2 C 81 % 0 lf 1014,7 hPa 0,0 l/m 0 min 0 min 273 W/m 16,7 km/h (3 Bft) 93,62 %
13.04.2017 10:54 10,7 C 13,3 C 12,2 C 81 % 0 lf 1014,6 hPa 0,0 l/m 0 min 0 min 242 W/m 18,8 km/h (3 Bft) 95,74 %
13.04.2017 10:56 10,7 C 13,3 C 12,2 C 82 % 0 lf 1014,7 hPa 0,0 l/m 0 min 0 min 226 W/m 16,7 km/h (3 Bft) 93,62 %
13.04.2017 10:58 10,8 C 13,3 C 11,7 C 82 % 0 lf 1014,7 hPa 0,0 l/m 0 min 0 min 199 W/m 23,0 km/h (4 Bft) 91,30 %
13.04.2017 11:00 10,8 C 12,8 C 11,7 C 81 % 0 lf 1014,8 hPa 0,0 l/m 0 min 0 min 170 W/m 18,8 km/h (3 Bft) 91,49 %
13.04.2017 11:02 10,7 C 12,2 C 11,1 C 80 % 0 lf 1014,7 hPa 0,0 l/m 0 min 0 min 151 W/m 16,7 km/h (3 Bft) 93,62 %
13.04.2017 11:04 10,7 C 12,2 C 11,1 C 80 % 0 lf 1014,7 hPa 0,0 l/m 0 min 0 min 155 W/m 18,8 km/h (3 Bft) 93,62 %
13.04.2017 11:06 10,7 C 12,2 C 11,1 C 80 % 0 lf 1014,8 hPa 0,0 l/m 0 min 0 min 159 W/m 18,8 km/h (3 Bft) 93,62 %
13.04.2017 11:08 10,7 C 11,7 C 11,1 C 80 % 0 lf 1014,8 hPa 0,0 l/m 0 min 0 min 146 W/m 23,0 km/h (4 Bft) 97,87 %
13.04.2017 11:10 10,7 C 11,7 C 11,1 C 81 % 0 lf 1014,8 hPa 0,0 l/m 0 min 0 min 135 W/m 20,9 km/h (4 Bft) 97,83 %
13.04.2017 11:12 10,7 C 11,7 C 10,6 C 81 % 0 lf 1014,8 hPa 0,0 l/m 0 min 0 min 129 W/m 23,0 km/h (4 Bft) 93,62 %
13.04.2017 11:14 10,6 C 11,7 C 11,1 C 81 % 0 lf 1014,9 hPa 0,0 l/m 0 min 0 min 144 W/m 20,9 km/h (4 Bft) 95,74 %
13.04.2017 11:16 10,6 C 11,7 C 11,1 C 81 % 0 lf 1014,8 hPa 0,0 l/m 0 min 0 min 154 W/m 18,8 km/h (3 Bft) 89,36 %
13.04.2017 11:18 10,6 C 11,7 C 10,6 C 81 % 0 lf 1014,9 hPa 0,0 l/m 0 min 0 min 148 W/m 27,2 km/h (4 Bft) 95,74 %
13.04.2017 11:20 10,6 C 11,7 C 11,1 C 81 % 0 lf 1014,9 hPa 0,0 l/m 0 min 0 min 155 W/m 20,9 km/h (4 Bft) 93,62 %
13.04.2017 11:22 10,6 C 11,7 C 11,1 C 80 % 0 lf 1014,9 hPa 0,0 l/m 0 min 0 min 176 W/m 18,8 km/h (3 Bft) 93,48 %
13.04.2017 11:24 10,6 C 12,2 C 11,7 C 81 % 0 lf 1015,0 hPa 0,0 l/m 0 min 0 min 193 W/m 16,7 km/h (3 Bft) 95,74 %
13.04.2017 11:26 10,6 C 12,2 C 11,7 C 81 % 0 lf 1015,0 hPa 0,0 l/m 0 min 0 min 211 W/m 14,6 km/h (3 Bft) 95,74 %
13.04.2017 11:28 10,6 C 12,8 C 12,2 C 81 % 0 lf 1015,0 hPa 0,0 l/m 0 min 0 min 217 W/m 10,5 km/h (2 Bft) 95,74 %
13.04.2017 11:30 10,7 C 12,8 C 11,7 C 81 % 0 lf 1015,0 hPa 0,0 l/m 0 min 0 min 170 W/m 18,8 km/h (3 Bft) 98,00 %
13.04.2017 11:32 10,7 C 12,8 C 11,7 C 81 % 0 lf 1015,0 hPa 0,0 l/m 0 min 0 min 128 W/m 14,6 km/h (3 Bft) 95,65 %
13.04.2017 11:34 10,7 C 12,2 C 11,1 C 81 % 0 lf 1015,0 hPa 0,0 l/m 0 min 0 min 98 W/m 12,6 km/h (3 Bft) 93,62 %
13.04.2017 11:36 10,7 C 12,2 C 10,6 C 81 % 0 lf 1015,0 hPa 0,0 l/m 0 min 0 min 70 W/m 12,6 km/h (3 Bft) 97,87 %
13.04.2017 11:38 10,7 C 12,2 C 10,6 C 81 % 0 lf 1015,0 hPa 0,0 l/m 0 min 0 min 63 W/m 14,6 km/h (3 Bft) 97,87 %
13.04.2017 11:40 10,7 C 11,7 C 10,0 C 80 % 0 lf 1015,1 hPa 0,0 l/m 0 min 0 min 78 W/m 14,6 km/h (3 Bft) 97,87 %
13.04.2017 11:42 10,7 C 11,7 C 10,0 C 80 % 0 lf 1015,1 hPa 0,0 l/m 0 min 0 min 92 W/m 14,6 km/h (3 Bft) 97,87 %
13.04.2017 11:44 10,7 C 11,7 C 10,0 C 80 % 0 lf 1015,0 hPa 0,0 l/m 0 min 0 min 98 W/m 16,7 km/h (3 Bft) 97,83 %
13.04.2017 11:46 10,7 C 11,7 C 10,0 C 80 % 0 lf 1015,0 hPa 0,0 l/m 0 min 0 min 94 W/m 12,6 km/h (3 Bft) 95,74 %
13.04.2017 11:48 10,7 C 11,7 C 10,6 C 80 % 0 lf 1015,1 hPa 0,0 l/m 0 min 0 min 119 W/m 12,6 km/h (3 Bft) 95,74 %
13.04.2017 11:50 10,7 C 11,7 C 11,1 C 81 % 0 lf 1015,1 hPa 0,0 l/m 0 min 0 min 159 W/m 14,6 km/h (3 Bft) 93,62 %
13.04.2017 11:52 10,7 C 12,2 C 11,7 C 81 % 0 lf 1015,1 hPa 0,0 l/m 0 min 0 min 195 W/m 10,5 km/h (2 Bft) 97,87 %
13.04.2017 11:54 10,7 C 12,8 C 11,7 C 81 % 0 lf 1015,1 hPa 0,0 l/m 0 min 0 min 242 W/m 14,6 km/h (3 Bft) 97,87 %
13.04.2017 11:56 10,7 C 12,8 C 12,2 C 81 % 0 lf 1015,1 hPa 0,0 l/m 0 min 0 min 289 W/m 14,6 km/h (3 Bft) 97,83 %
13.04.2017 11:58 10,8 C 13,9 C 12,8 C 81 % 0 lf 1015,1 hPa 0,0 l/m 0 min 0 min 320 W/m 12,6 km/h (3 Bft) 93,62 %
13.04.2017 12:00 10,8 C 14,4 C 13,9 C 81 % 0 lf 1015,0 hPa 0,0 l/m 2 min 0 min 348 W/m 12,6 km/h (3 Bft) 97,87 %
13.04.2017 12:02 10,9 C 15,0 C 13,9 C 81 % 0 lf 1015,0 hPa 0,0 l/m 0 min 0 min 323 W/m 16,7 km/h (3 Bft) 95,65 %
13.04.2017 12:04 11,0 C 14,4 C 13,3 C 80 % 0 lf 1015,1 hPa 0,0 l/m 0 min 0 min 289 W/m 23,0 km/h (4 Bft) 97,87 %
13.04.2017 12:06 11,1 C 15,0 C 13,9 C 79 % 0 lf 1015,1 hPa 0,0 l/m 0 min 0 min 320 W/m 14,6 km/h (3 Bft) 95,74 %
13.04.2017 12:08 11,1 C 15,0 C 13,9 C 79 % 0 lf 1015,1 hPa 0,0 l/m 0 min 0 min 332 W/m 16,7 km/h (3 Bft) 100,00 %
13.04.2017 12:10 11,2 C 15,6 C 14,4 C 79 % 0 lf 1015,0 hPa 0,0 l/m 0 min 0 min 338 W/m 12,6 km/h (3 Bft) 100,00 %
13.04.2017 12:12 11,3 C 15,0 C 14,4 C 78 % 0 lf 1015,0 hPa 0,0 l/m 2 min 0 min 346 W/m 18,8 km/h (3 Bft) 97,87 %
13.04.2017 12:14 11,4 C 15,0 C 13,9 C 76 % 0 lf 1014,9 hPa 0,0 l/m 0 min 0 min 334 W/m 23,0 km/h (4 Bft) 97,87 %
13.04.2017 12:16 11,4 C 15,0 C 13,9 C 75 % 0 lf 1015,0 hPa 0,0 l/m 0 min 0 min 342 W/m 23,0 km/h (4 Bft) 100,00 %
13.04.2017 12:18 11,5 C 15,0 C 13,9 C 74 % 0 lf 1015,0 hPa 0,0 l/m 2 min 0 min 373 W/m 29,3 km/h (5 Bft) 97,87 %
13.04.2017 12:20 11,6 C 15,0 C 13,9 C 74 % 0 lf 1015,0 hPa 0,0 l/m 2 min 0 min 397 W/m 20,9 km/h (4 Bft) 100,00 %
13.04.2017 12:22 11,6 C 15,6 C 13,9 C 74 % 0 lf 1015,0 hPa 0,0 l/m 0 min 0 min 342 W/m 20,9 km/h (4 Bft) 95,74 %
13.04.2017 12:24 11,7 C 15,0 C 13,9 C 74 % 0 lf 1015,0 hPa 0,0 l/m 0 min 0 min 253 W/m 18,8 km/h (3 Bft) 100,00 %
13.04.2017 12:26 11,8 C 14,4 C 13,9 C 74 % 0 lf 1015,1 hPa 0,0 l/m 0 min 0 min 229 W/m 16,7 km/h (3 Bft) 97,87 %
13.04.2017 12:28 11,8 C 14,4 C 13,3 C 74 % 0 lf 1015,1 hPa 0,0 l/m 0 min 0 min 199 W/m 20,9 km/h (4 Bft) 100,00 %
13.04.2017 12:30 11,8 C 13,9 C 12,8 C 73 % 0 lf 1015,1 hPa 0,0 l/m 0 min 0 min 188 W/m 20,9 km/h (4 Bft) 100,00 %
13.04.2017 12:32 11,8 C 13,9 C 12,8 C 73 % 0 lf 1015,2 hPa 0,0 l/m 0 min 0 min 185 W/m 18,8 km/h (3 Bft) 100,00 %
13.04.2017 12:34 11,8 C 13,9 C 12,8 C 73 % 0 lf 1015,1 hPa 0,0 l/m 0 min 0 min 195 W/m 18,8 km/h (3 Bft) 95,74 %
13.04.2017 12:36 11,8 C 13,9 C 12,2 C 72 % 0 lf 1015,1 hPa 0,0 l/m 0 min 0 min 190 W/m 16,7 km/h (3 Bft) 100,00 %
13.04.2017 12:38 11,8 C 13,3 C 12,8 C 72 % 0 lf 1015,1 hPa 0,0 l/m 0 min 0 min 179 W/m 20,9 km/h (4 Bft) 100,00 %
13.04.2017 12:40 11,8 C 13,3 C 12,2 C 73 % 0 lf 1015,1 hPa 0,0 l/m 0 min 0 min 164 W/m 16,7 km/h (3 Bft) 97,87 %
13.04.2017 12:42 11,7 C 13,3 C 12,2 C 72 % 0 lf 1015,1 hPa 0,0 l/m 0 min 0 min 168 W/m 20,9 km/h (4 Bft) 97,83 %
13.04.2017 12:44 11,7 C 12,8 C 12,2 C 72 % 0 lf 1015,1 hPa 0,0 l/m 0 min 0 min 176 W/m 27,2 km/h (4 Bft) 97,87 %
13.04.2017 12:46 11,7 C 12,8 C 12,2 C 71 % 0 lf 1015,0 hPa 0,0 l/m 0 min 0 min 188 W/m 25,1 km/h (4 Bft) 100,00 %
13.04.2017 12:48 11,6 C 12,8 C 12,2 C 72 % 0 lf 1015,0 hPa 0,0 l/m 0 min 0 min 186 W/m 27,2 km/h (4 Bft) 97,87 %
13.04.2017 12:50 11,6 C 12,8 C 12,2 C 72 % 0 lf 1015,0 hPa 0,0 l/m 0 min 0 min 151 W/m 23,0 km/h (4 Bft) 97,87 %
13.04.2017 12:52 11,6 C 12,8 C 11,7 C 72 % 0 lf 1015,1 hPa 0,0 l/m 0 min 0 min 111 W/m 18,8 km/h (3 Bft) 97,87 %
13.04.2017 12:54 11,5 C 12,2 C 11,1 C 72 % 0 lf 1015,1 hPa 0,0 l/m 0 min 0 min 104 W/m 20,9 km/h (4 Bft) 97,83 %
13.04.2017 12:56 11,4 C 12,2 C 11,1 C 72 % 0 lf 1015,1 hPa 0,0 l/m 0 min 0 min 101 W/m 20,9 km/h (4 Bft) 93,62 %
13.04.2017 12:58 11,4 C 12,2 C 11,1 C 72 % 0 lf 1015,0 hPa 0,0 l/m 0 min 0 min 105 W/m 23,0 km/h (4 Bft) 95,74 %
13.04.2017 13:00 11,4 C 12,2 C 11,1 C 72 % 0 lf 1015,1 hPa 0,0 l/m 0 min 0 min 112 W/m 16,7 km/h (3 Bft) 95,74 %
13.04.2017 13:02 11,3 C 12,2 C 11,1 C 73 % 0 lf 1015,1 hPa 0,0 l/m 0 min 0 min 134 W/m 8,4 km/h (2 Bft) 95,74 %
13.04.2017 13:04 11,3 C 12,2 C 11,7 C 73 % 0 lf 1015,0 hPa 0,0 l/m 0 min 0 min 169 W/m 10,5 km/h (2 Bft) 95,74 %
13.04.2017 13:06 11,3 C 12,8 C 12,2 C 74 % 0 lf 1015,1 hPa 0,0 l/m 0 min 0 min 228 W/m 14,6 km/h (3 Bft) 97,83 %
13.04.2017 13:08 11,3 C 13,3 C 12,8 C 75 % 0 lf 1015,1 hPa 0,0 l/m 0 min 0 min 285 W/m 14,6 km/h (3 Bft) 93,62 %
13.04.2017 13:10 11,4 C 13,9 C 13,3 C 75 % 0 lf 1015,1 hPa 0,0 l/m 0 min 0 min 293 W/m 16,7 km/h (3 Bft) 95,74 %
13.04.2017 13:12 11,4 C 14,4 C 13,3 C 75 % 0 lf 1015,1 hPa 0,0 l/m 0 min 0 min 328 W/m 12,6 km/h (3 Bft) 95,74 %
13.04.2017 13:14 11,4 C 15,0 C 13,9 C 75 % 0 lf 1015,1 hPa 0,0 l/m 0 min 0 min 360 W/m 12,6 km/h (3 Bft) 89,36 %
13.04.2017 13:16 11,5 C 15,0 C 13,9 C 75 % 0 lf 1015,0 hPa 0,0 l/m 0 min 0 min 336 W/m 14,6 km/h (3 Bft) 93,62 %
13.04.2017 13:18 11,6 C 15,6 C 14,4 C 74 % 0 lf 1015,0 hPa 0,0 l/m 0 min 0 min 349 W/m 16,7 km/h (3 Bft) 95,65 %
13.04.2017 13:20 11,7 C 16,1 C 15,0 C 75 % 0 lf 1015,1 hPa 0,0 l/m 2 min 0 min 655 W/m 14,6 km/h (3 Bft) 93,62 %
13.04.2017 13:22 11,8 C 15,6 C 15,0 C 74 % 0 lf 1015,1 hPa 0,0 l/m 0 min 0 min 287 W/m 14,6 km/h (3 Bft) 93,62 %
13.04.2017 13:24 11,8 C 15,0 C 14,4 C 73 % 0 lf 1015,0 hPa 0,0 l/m 0 min 0 min 240 W/m 12,6 km/h (3 Bft) 91,49 %
13.04.2017 13:26 11,9 C 14,4 C 13,9 C 73 % 0 lf 1015,0 hPa 0,0 l/m 0 min 0 min 172 W/m 16,7 km/h (3 Bft) 89,36 %
13.04.2017 13:28 12,0 C 13,9 C 13,3 C 73 % 0 lf 1015,1 hPa 0,0 l/m 0 min 0 min 128 W/m 16,7 km/h (3 Bft) 93,62 %
13.04.2017 13:30 12,0 C 13,9 C 12,8 C 72 % 0 lf 1015,1 hPa 0,0 l/m 0 min 0 min 117 W/m 16,7 km/h (3 Bft) 95,65 %
13.04.2017 13:32 12,0 C 13,3 C 12,2 C 72 % 0 lf 1015,1 hPa 0,0 l/m 0 min 0 min 99 W/m 20,9 km/h (4 Bft) 93,62 %
13.04.2017 13:34 12,0 C 12,8 C 12,2 C 71 % 0 lf 1015,0 hPa 0,0 l/m 0 min 0 min 108 W/m 16,7 km/h (3 Bft) 95,74 %
13.04.2017 13:36 11,9 C 12,8 C 11,7 C 71 % 0 lf 1015,1 hPa 0,0 l/m 0 min 0 min 135 W/m 20,9 km/h (4 Bft) 95,74 %
13.04.2017 13:38 11,9 C 12,8 C 11,7 C 71 % 0 lf 1015,2 hPa 0,0 l/m 0 min 0 min 157 W/m 20,9 km/h (4 Bft) 93,62 %
13.04.2017 13:40 11,9 C 12,8 C 12,2 C 71 % 0 lf 1015,2 hPa 0,0 l/m 0 min 0 min 201 W/m 18,8 km/h (3 Bft) 93,62 %
13.04.2017 13:42 11,8 C 12,8 C 12,2 C 70 % 0 lf 1015,2 hPa 0,0 l/m 0 min 0 min 253 W/m 25,1 km/h (4 Bft) 97,56 %
13.04.2017 13:44 11,8 C 13,3 C 12,8 C 70 % 0 lf 1015,2 hPa 0,0 l/m 0 min 0 min 279 W/m 27,2 km/h (4 Bft) 91,49 %
13.04.2017 13:46 11,8 C 13,9 C 13,3 C 71 % 0 lf 1015,1 hPa 0,0 l/m 0 min 0 min 338 W/m 20,9 km/h (4 Bft) 93,88 %
13.04.2017 13:48 11,8 C 16,1 C 14,4 C 72 % 0 lf 1015,1 hPa 0,0 l/m 2 min 0 min 441 W/m 16,7 km/h (3 Bft) 95,74 %
13.04.2017 13:50 11,9 C 17,2 C 15,0 C 72 % 0 lf 1015,1 hPa 0,0 l/m 2 min 0 min 458 W/m 20,9 km/h (4 Bft) 93,62 %
13.04.2017 13:52 12,0 C 17,8 C 15,0 C 71 % 0 lf 1015,1 hPa 0,0 l/m 2 min 0 min 460 W/m 18,8 km/h (3 Bft) 95,74 %
13.04.2017 13:54 12,2 C 17,2 C 15,0 C 70 % 0 lf 1015,1 hPa 0,0 l/m 2 min 0 min 413 W/m 20,9 km/h (4 Bft) 97,87 %
13.04.2017 13:56 12,2 C 16,7 C 14,4 C 68 % 0 lf 1015,0 hPa 0,0 l/m 2 min 0 min 366 W/m 25,1 km/h (4 Bft) 95,74 %
13.04.2017 13:58 12,3 C 16,1 C 15,0 C 68 % 0 lf 1015,0 hPa 0,0 l/m 0 min 0 min 352 W/m 27,2 km/h (4 Bft) 97,83 %
13.04.2017 14:00 12,4 C 16,1 C 15,0 C 69 % 0 lf 1015,0 hPa 0,0 l/m 0 min 0 min 353 W/m 23,0 km/h (4 Bft) 93,62 %
13.04.2017 14:02 12,4 C 16,7 C 15,0 C 68 % 0 lf 1015,1 hPa 0,0 l/m 2 min 0 min 454 W/m 18,8 km/h (3 Bft) 95,92 %
13.04.2017 14:04 12,5 C 16,1 C 14,4 C 68 % 0 lf 1015,0 hPa 0,0 l/m 0 min 0 min 291 W/m 20,9 km/h (4 Bft) 91,49 %
13.04.2017 14:06 12,6 C 15,6 C 14,4 C 68 % 0 lf 1015,0 hPa 0,0 l/m 0 min 0 min 273 W/m 23,0 km/h (4 Bft) 93,62 %
13.04.2017 14:08 12,6 C 16,1 C 13,9 C 68 % 0 lf 1015,0 hPa 0,0 l/m 0 min 0 min 293 W/m 14,6 km/h (3 Bft) 93,62 %
13.04.2017 14:10 12,6 C 16,1 C 14,4 C 69 % 0 lf 1015,1 hPa 0,0 l/m 0 min 0 min 301 W/m 16,7 km/h (3 Bft) 93,48 %
13.04.2017 14:12 12,7 C 16,1 C 15,0 C 69 % 0 lf 1015,0 hPa 0,0 l/m 0 min 0 min 271 W/m 12,6 km/h (3 Bft) 91,49 %
13.04.2017 14:14 12,7 C 15,6 C 14,4 C 69 % 0 lf 1015,1 hPa 0,0 l/m 0 min 0 min 245 W/m 20,9 km/h (4 Bft) 93,62 %
13.04.2017 14:16 12,7 C 15,0 C 13,9 C 68 % 0 lf 1015,0 hPa 0,0 l/m 0 min 0 min 233 W/m 25,1 km/h (4 Bft) 97,87 %
13.04.2017 14:18 12,7 C 15,0 C 13,9 C 67 % 0 lf 1015,0 hPa 0,0 l/m 0 min 0 min 239 W/m 20,9 km/h (4 Bft) 97,87 %
13.04.2017 14:20 12,7 C 14,4 C 13,9 C 67 % 0 lf 1015,0 hPa 0,0 l/m 0 min 0 min 256 W/m 23,0 km/h (4 Bft) 95,74 %
13.04.2017 14:22 12,6 C 15,6 C 13,9 C 67 % 0 lf 1015,1 hPa 0,0 l/m 0 min 0 min 287 W/m 14,6 km/h (3 Bft) 95,65 %
13.04.2017 14:24 12,7 C 16,1 C 14,4 C 67 % 0 lf 1015,0 hPa 0,0 l/m 2 min 0 min 366 W/m 20,9 km/h (4 Bft) 95,74 %
13.04.2017 14:26 12,6 C 17,8 C 14,4 C 67 % 0 lf 1015,1 hPa 0,0 l/m 2 min 0 min 552 W/m 20,9 km/h (4 Bft) 97,87 %
13.04.2017 14:28 12,7 C 18,3 C 15,0 C 67 % 0 lf 1015,0 hPa 0,0 l/m 2 min 0 min 974 W/m 20,9 km/h (4 Bft) 97,87 %
13.04.2017 14:30 12,8 C 18,9 C 15,0 C 67 % 0 lf 1014,9 hPa 0,0 l/m 2 min 0 min 974 W/m 14,6 km/h (3 Bft) 97,87 %
13.04.2017 14:32 12,9 C 19,4 C 15,6 C 68 % 0 lf 1014,9 hPa 0,0 l/m 2 min 0 min 974 W/m 12,6 km/h (3 Bft) 95,65 %
13.04.2017 14:34 13,0 C 18,9 C 15,6 C 67 % 0 lf 1014,9 hPa 0,0 l/m 2 min 0 min 508 W/m 18,8 km/h (3 Bft) 95,74 %
13.04.2017 14:36 13,1 C 21,7 C 16,1 C 67 % 0 lf 1015,0 hPa 0,0 l/m 2 min 0 min 447 W/m 14,6 km/h (3 Bft) 95,74 %
13.04.2017 14:38 13,2 C 20,6 C 16,7 C 66 % 0 lf 1015,0 hPa 0,0 l/m 2 min 0 min 609 W/m 23,0 km/h (4 Bft) 93,62 %
13.04.2017 14:40 13,3 C 18,9 C 16,1 C 64 % 0 lf 1014,9 hPa 0,0 l/m 2 min 0 min 406 W/m 25,1 km/h (4 Bft) 97,87 %
13.04.2017 14:42 13,4 C 17,8 C 15,6 C 63 % 0 lf 1014,9 hPa 0,0 l/m 0 min 0 min 275 W/m 18,8 km/h (3 Bft) 95,74 %
13.04.2017 14:44 13,4 C 16,7 C 15,0 C 62 % 0 lf 1014,9 hPa 0,0 l/m 0 min 0 min 247 W/m 29,3 km/h (5 Bft) 95,65 %
13.04.2017 14:46 13,4 C 15,6 C 14,4 C 62 % 0 lf 1015,0 hPa 0,0 l/m 0 min 0 min 221 W/m 16,7 km/h (3 Bft) 97,87 %
13.04.2017 14:48 13,3 C 15,6 C 13,9 C 62 % 0 lf 1015,0 hPa 0,0 l/m 0 min 0 min 217 W/m 25,1 km/h (4 Bft) 100,00 %
13.04.2017 14:50 13,3 C 15,6 C 13,9 C 63 % 0 lf 1015,0 hPa 0,0 l/m 0 min 0 min 257 W/m 33,5 km/h (5 Bft) 100,00 %
13.04.2017 14:52 13,2 C 15,6 C 13,9 C 63 % 0 lf 1014,9 hPa 0,0 l/m 0 min 0 min 312 W/m 23,0 km/h (4 Bft) 100,00 %
13.04.2017 14:54 13,2 C 16,7 C 15,6 C 64 % 0 lf 1014,9 hPa 0,0 l/m 2 min 0 min 361 W/m 29,3 km/h (5 Bft) 100,00 %
13.04.2017 14:56 13,3 C 18,3 C 16,1 C 65 % 0 lf 1014,9 hPa 0,0 l/m 2 min 0 min 385 W/m 25,1 km/h (4 Bft) 95,65 %
13.04.2017 14:58 13,3 C 18,3 C 16,7 C 64 % 0 lf 1014,9 hPa 0,0 l/m 2 min 0 min 394 W/m 27,2 km/h (4 Bft) 95,74 %
13.04.2017 15:00 13,4 C 17,8 C 16,1 C 64 % 0 lf 1014,9 hPa 0,0 l/m 0 min 0 min 338 W/m 23,0 km/h (4 Bft) 95,74 %
13.04.2017 15:02 13,4 C 19,4 C 17,2 C 64 % 0 lf 1014,9 hPa 0,0 l/m 0 min 0 min 290 W/m 20,9 km/h (4 Bft) 100,00 %
13.04.2017 15:04 13,5 C 20,0 C 18,9 C 63 % 0 lf 1014,8 hPa 0,0 l/m 2 min 0 min 731 W/m 20,9 km/h (4 Bft) 95,65 %
13.04.2017 15:06 13,6 C 21,7 C 18,3 C 64 % 0 lf 1014,8 hPa 0,0 l/m 2 min 0 min 730 W/m 23,0 km/h (4 Bft) 97,87 %
13.04.2017 15:08 13,7 C 21,7 C 17,8 C 62 % 0 lf 1014,7 hPa 0,0 l/m 2 min 0 min 685 W/m 20,9 km/h (4 Bft) 97,87 %
13.04.2017 15:10 13,8 C 20,6 C 16,7 C 61 % 0 lf 1014,8 hPa 0,0 l/m 2 min 0 min 679 W/m 20,9 km/h (4 Bft) 97,87 %
13.04.2017 15:12 13,9 C 17,8 C 15,6 C 60 % 0 lf 1014,8 hPa 0,0 l/m 0 min 0 min 284 W/m 25,1 km/h (4 Bft) 97,87 %
13.04.2017 15:14 13,8 C 17,2 C 15,6 C 59 % 0 lf 1014,7 hPa 0,0 l/m 0 min 0 min 316 W/m 20,9 km/h (4 Bft) 95,65 %
13.04.2017 15:16 13,8 C 16,7 C 15,0 C 59 % 0 lf 1014,7 hPa 0,0 l/m 0 min 0 min 276 W/m 18,8 km/h (3 Bft) 97,87 %
13.04.2017 15:18 13,8 C 16,7 C 15,0 C 60 % 0 lf 1014,6 hPa 0,0 l/m 0 min 0 min 245 W/m 16,7 km/h (3 Bft) 97,87 %
13.04.2017 15:20 13,8 C 16,7 C 14,4 C 61 % 0 lf 1014,7 hPa 0,0 l/m 0 min 0 min 216 W/m 14,6 km/h (3 Bft) 93,62 %
13.04.2017 15:22 13,8 C 16,1 C 14,4 C 60 % 0 lf 1014,7 hPa 0,0 l/m 0 min 0 min 203 W/m 20,9 km/h (4 Bft) 95,74 %
13.04.2017 15:24 13,7 C 15,6 C 14,4 C 60 % 0 lf 1014,6 hPa 0,0 l/m 0 min 0 min 257 W/m 18,8 km/h (3 Bft) 100,00 %
13.04.2017 15:26 13,7 C 15,6 C 14,4 C 60 % 0 lf 1014,6 hPa 0,0 l/m 0 min 0 min 219 W/m 14,6 km/h (3 Bft) 97,83 %
13.04.2017 15:28 13,7 C 15,6 C 13,9 C 60 % 0 lf 1014,7 hPa 0,0 l/m 0 min 0 min 195 W/m 16,7 km/h (3 Bft) 97,87 %
13.04.2017 15:30 13,6 C 15,0 C 13,9 C 60 % 0 lf 1014,7 hPa 0,0 l/m 0 min 0 min 174 W/m 18,8 km/h (3 Bft) 95,74 %
13.04.2017 15:32 13,6 C 15,0 C 13,9 C 59 % 0 lf 1014,6 hPa 0,0 l/m 0 min 0 min 147 W/m 23,0 km/h (4 Bft) 95,74 %
13.04.2017 15:34 13,5 C 14,4 C 13,3 C 59 % 0 lf 1014,7 hPa 0,0 l/m 0 min 0 min 152 W/m 18,8 km/h (3 Bft) 97,87 %
13.04.2017 15:36 13,4 C 15,0 C 13,3 C 60 % 0 lf 1014,6 hPa 0,0 l/m 0 min 0 min 181 W/m 20,9 km/h (4 Bft) 97,87 %
13.04.2017 15:38 13,4 C 15,0 C 13,3 C 60 % 0 lf 1014,7 hPa 0,0 l/m 0 min 0 min 230 W/m 20,9 km/h (4 Bft) 97,83 %
13.04.2017 15:40 13,4 C 15,0 C 13,3 C 60 % 0 lf 1014,6 hPa 0,0 l/m 0 min 0 min 199 W/m 16,7 km/h (3 Bft) 97,87 %
13.04.2017 15:42 13,3 C 15,0 C 13,3 C 60 % 0 lf 1014,7 hPa 0,0 l/m 0 min 0 min 189 W/m 25,1 km/h (4 Bft) 95,74 %
13.04.2017 15:44 13,3 C 15,0 C 12,8 C 60 % 0 lf 1014,6 hPa 0,0 l/m 0 min 0 min 206 W/m 25,1 km/h (4 Bft) 97,87 %
13.04.2017 15:46 13,2 C 16,1 C 13,9 C 61 % 0 lf 1014,7 hPa 0,0 l/m 0 min 0 min 276 W/m 18,8 km/h (3 Bft) 97,87 %
13.04.2017 15:48 13,2 C 16,7 C 13,9 C 61 % 0 lf 1014,6 hPa 0,0 l/m 2 min 0 min 333 W/m 18,8 km/h (3 Bft) 91,49 %
13.04.2017 15:50 13,2 C 16,1 C 13,9 C 61 % 0 lf 1014,6 hPa 0,0 l/m 0 min 0 min 250 W/m 20,9 km/h (4 Bft) 100,00 %
13.04.2017 15:52 13,2 C 16,1 C 13,9 C 61 % 0 lf 1014,5 hPa 0,0 l/m 0 min 0 min 254 W/m 23,0 km/h (4 Bft) 100,00 %
13.04.2017 15:54 13,2 C 16,1 C 13,9 C 61 % 0 lf 1014,6 hPa 0,0 l/m 0 min 0 min 244 W/m 18,8 km/h (3 Bft) 97,87 %
13.04.2017 15:56 13,2 C 16,1 C 13,9 C 61 % 0 lf 1014,5 hPa 0,0 l/m 0 min 0 min 279 W/m 16,7 km/h (3 Bft) 97,87 %
13.04.2017 15:58 13,2 C 16,1 C 14,4 C 61 % 0 lf 1014,5 hPa 0,0 l/m 0 min 0 min 297 W/m 20,9 km/h (4 Bft) 95,74 %
13.04.2017 16:00 13,2 C 16,1 C 15,0 C 62 % 0 lf 1014,5 hPa 0,0 l/m 0 min 0 min 288 W/m 18,8 km/h (3 Bft) 95,74 %
13.04.2017 16:02 13,3 C 16,1 C 15,0 C 62 % 0 lf 1014,5 hPa 0,0 l/m 0 min 0 min 252 W/m 18,8 km/h (3 Bft) 95,65 %
13.04.2017 16:04 13,3 C 15,6 C 15,0 C 61 % 0 lf 1014,5 hPa 0,0 l/m 0 min 0 min 249 W/m 23,0 km/h (4 Bft) 97,87 %
13.04.2017 16:06 13,3 C 15,6 C 15,0 C 61 % 0 lf 1014,5 hPa 0,0 l/m 0 min 0 min 256 W/m 16,7 km/h (3 Bft) 97,87 %
13.04.2017 16:08 13,3 C 16,7 C 15,0 C 60 % 0 lf 1014,5 hPa 0,0 l/m 0 min 0 min 288 W/m 25,1 km/h (4 Bft) 95,74 %
13.04.2017 16:10 13,4 C 18,9 C 16,7 C 60 % 0 lf 1014,5 hPa 0,0 l/m 2 min 0 min 382 W/m 16,7 km/h (3 Bft) 97,87 %
13.04.2017 16:12 13,5 C 19,4 C 16,7 C 60 % 0 lf 1014,5 hPa 0,0 l/m 2 min 0 min 661 W/m 25,1 km/h (4 Bft) 97,87 %
13.04.2017 16:14 13,6 C 18,3 C 15,6 C 59 % 0 lf 1014,5 hPa 0,0 l/m 2 min 0 min 511 W/m 25,1 km/h (4 Bft) 97,83 %
13.04.2017 16:16 13,7 C 17,8 C 15,6 C 59 % 0 lf 1014,5 hPa 0,0 l/m 2 min 0 min 319 W/m 18,8 km/h (3 Bft) 95,74 %
13.04.2017 16:18 13,7 C 16,7 C 15,0 C 58 % 0 lf 1014,4 hPa 0,0 l/m 2 min 0 min 297 W/m 14,6 km/h (3 Bft) 97,87 %
13.04.2017 16:20 13,7 C 16,1 C 14,4 C 58 % 0 lf 1014,5 hPa 0,0 l/m 0 min 0 min 222 W/m 27,2 km/h (4 Bft) 97,87 %
13.04.2017 16:22 13,7 C 16,7 C 14,4 C 58 % 0 lf 1014,5 hPa 0,0 l/m 0 min 0 min 227 W/m 14,6 km/h (3 Bft) 93,62 %
13.04.2017 16:24 13,7 C 16,1 C 14,4 C 58 % 0 lf 1014,5 hPa 0,0 l/m 0 min 0 min 211 W/m 20,9 km/h (4 Bft) 97,87 %
13.04.2017 16:26 13,7 C 15,6 C 14,4 C 59 % 0 lf 1014,5 hPa 0,0 l/m 0 min 0 min 199 W/m 23,0 km/h (4 Bft) 97,83 %
13.04.2017 16:28 13,7 C 15,6 C 14,4 C 60 % 0 lf 1014,5 hPa 0,0 l/m 0 min 0 min 217 W/m 18,8 km/h (3 Bft) 95,74 %
13.04.2017 16:30 13,7 C 16,7 C 14,4 C 60 % 0 lf 1014,5 hPa 0,0 l/m 0 min 0 min 257 W/m 20,9 km/h (4 Bft) 95,74 %
13.04.2017 16:32 13,7 C 17,2 C 15,0 C 60 % 0 lf 1014,5 hPa 0,0 l/m 0 min 0 min 257 W/m 23,0 km/h (4 Bft) 97,87 %
13.04.2017 16:34 13,7 C 16,7 C 15,0 C 59 % 0 lf 1014,5 hPa 0,0 l/m 0 min 0 min 252 W/m 23,0 km/h (4 Bft) 97,87 %
13.04.2017 16:36 13,7 C 17,2 C 14,4 C 59 % 0 lf 1014,5 hPa 0,0 l/m 0 min 0 min 230 W/m 16,7 km/h (3 Bft) 93,48 %
13.04.2017 16:38 13,7 C 16,7 C 14,4 C 59 % 0 lf 1014,4 hPa 0,0 l/m 0 min 0 min 214 W/m 25,1 km/h (4 Bft) 87,23 %
13.04.2017 16:40 13,7 C 16,1 C 14,4 C 59 % 0 lf 1014,4 hPa 0,0 l/m 0 min 0 min 200 W/m 18,8 km/h (3 Bft) 89,36 %
13.04.2017 16:42 13,7 C 16,1 C 14,4 C 60 % 0 lf 1014,4 hPa 0,0 l/m 0 min 0 min 192 W/m 16,7 km/h (3 Bft) 87,23 %
13.04.2017 16:44 13,7 C 15,6 C 14,4 C 60 % 0 lf 1014,5 hPa 0,0 l/m 0 min 0 min 170 W/m 23,0 km/h (4 Bft) 93,62 %
13.04.2017 16:46 13,7 C 15,0 C 13,9 C 60 % 0 lf 1014,5 hPa 0,0 l/m 0 min 0 min 166 W/m 18,8 km/h (3 Bft) 91,49 %
13.04.2017 16:48 13,6 C 15,0 C 13,9 C 59 % 0 lf 1014,5 hPa 0,0 l/m 0 min 0 min 164 W/m 20,9 km/h (4 Bft) 91,30 %
13.04.2017 16:50 13,6 C 15,6 C 13,9 C 60 % 0 lf 1014,5 hPa 0,0 l/m 0 min 0 min 159 W/m 10,5 km/h (2 Bft) 95,74 %
13.04.2017 16:52 13,6 C 15,0 C 13,3 C 60 % 0 lf 1014,5 hPa 0,0 l/m 0 min 0 min 141 W/m 20,9 km/h (4 Bft) 95,74 %
13.04.2017 16:54 13,6 C 15,0 C 13,3 C 60 % 0 lf 1014,4 hPa 0,0 l/m 0 min 0 min 126 W/m 14,6 km/h (3 Bft) 91,49 %
13.04.2017 16:56 13,5 C 15,0 C 13,3 C 60 % 0 lf 1014,4 hPa 0,0 l/m 0 min 0 min 115 W/m 12,6 km/h (3 Bft) 93,62 %
13.04.2017 16:58 13,5 C 14,4 C 13,3 C 60 % 0 lf 1014,4 hPa 0,0 l/m 0 min 0 min 108 W/m 18,8 km/h (3 Bft) 93,62 %
13.04.2017 17:00 13,4 C 14,4 C 12,8 C 61 % 0 lf 1014,4 hPa 0,0 l/m 0 min 0 min 112 W/m 14,6 km/h (3 Bft) 95,65 %
13.04.2017 17:02 13,4 C 14,4 C 13,3 C 60 % 0 lf 1014,4 hPa 0,0 l/m 0 min 0 min 129 W/m 16,7 km/h (3 Bft) 95,74 %
13.04.2017 17:04 13,4 C 14,4 C 13,3 C 59 % 0 lf 1014,5 hPa 0,0 l/m 0 min 0 min 145 W/m 20,9 km/h (4 Bft) 93,62 %
13.04.2017 17:06 13,3 C 14,4 C 13,3 C 59 % 0 lf 1014,4 hPa 0,0 l/m 0 min 0 min 145 W/m 18,8 km/h (3 Bft) 91,49 %
13.04.2017 17:08 13,3 C 13,9 C 12,8 C 58 % 0 lf 1014,5 hPa 0,0 l/m 0 min 0 min 132 W/m 18,8 km/h (3 Bft) 95,74 %
13.04.2017 17:10 13,2 C 13,9 C 12,8 C 58 % 0 lf 1014,4 hPa 0,0 l/m 0 min 0 min 120 W/m 23,0 km/h (4 Bft) 95,74 %
13.04.2017 17:12 13,2 C 13,9 C 12,8 C 59 % 0 lf 1014,4 hPa 0,0 l/m 0 min 0 min 114 W/m 14,6 km/h (3 Bft) 93,48 %
13.04.2017 17:14 13,2 C 13,9 C 12,8 C 59 % 0 lf 1014,4 hPa 0,0 l/m 0 min 0 min 118 W/m 18,8 km/h (3 Bft) 93,62 %
13.04.2017 17:16 13,1 C 13,9 C 12,8 C 58 % 0 lf 1014,4 hPa 0,0 l/m 0 min 0 min 118 W/m 16,7 km/h (3 Bft) 93,62 %
13.04.2017 17:18 13,1 C 13,9 C 12,8 C 59 % 0 lf 1014,5 hPa 0,0 l/m 0 min 0 min 116 W/m 29,3 km/h (5 Bft) 95,74 %
13.04.2017 17:20 13,1 C 13,9 C 12,8 C 59 % 0 lf 1014,4 hPa 0,0 l/m 0 min 0 min 122 W/m 14,6 km/h (3 Bft) 93,62 %
13.04.2017 17:22 13,1 C 13,9 C 12,8 C 60 % 0 lf 1014,4 hPa 0,0 l/m 0 min 0 min 115 W/m 14,6 km/h (3 Bft) 93,62 %
13.04.2017 17:24 13,0 C 13,9 C 12,8 C 60 % 0 lf 1014,4 hPa 0,0 l/m 0 min 0 min 106 W/m 14,6 km/h (3 Bft) 86,96 %
13.04.2017 17:26 13,0 C 13,9 C 12,8 C 60 % 0 lf 1014,4 hPa 0,0 l/m 0 min 0 min 112 W/m 16,7 km/h (3 Bft) 93,62 %
13.04.2017 17:28 13,0 C 13,9 C 12,8 C 60 % 0 lf 1014,3 hPa 0,0 l/m 0 min 0 min 125 W/m 18,8 km/h (3 Bft) 91,49 %
13.04.2017 17:30 13,0 C 13,9 C 12,8 C 60 % 0 lf 1014,4 hPa 0,0 l/m 0 min 0 min 143 W/m 16,7 km/h (3 Bft) 95,74 %
13.04.2017 17:32 12,9 C 13,9 C 12,8 C 60 % 0 lf 1014,4 hPa 0,0 l/m 0 min 0 min 147 W/m 14,6 km/h (3 Bft) 93,62 %
13.04.2017 17:34 12,9 C 13,9 C 12,8 C 60 % 0 lf 1014,4 hPa 0,0 l/m 0 min 0 min 145 W/m 14,6 km/h (3 Bft) 97,87 %
13.04.2017 17:36 12,9 C 13,9 C 13,3 C 60 % 0 lf 1014,5 hPa 0,0 l/m 0 min 0 min 140 W/m 14,6 km/h (3 Bft) 95,65 %
13.04.2017 17:38 12,9 C 13,9 C 13,3 C 60 % 0 lf 1014,5 hPa 0,0 l/m 0 min 0 min 130 W/m 18,8 km/h (3 Bft) 97,87 %
13.04.2017 17:40 12,9 C 13,9 C 12,8 C 60 % 0 lf 1014,4 hPa 0,0 l/m 0 min 0 min 126 W/m 18,8 km/h (3 Bft) 97,87 %
13.04.2017 17:42 12,9 C 13,9 C 12,8 C 60 % 0 lf 1014,4 hPa 0,0 l/m 0 min 0 min 127 W/m 12,6 km/h (3 Bft) 95,74 %
13.04.2017 17:44 12,9 C 13,9 C 12,8 C 60 % 0 lf 1014,5 hPa 0,0 l/m 0 min 0 min 122 W/m 14,6 km/h (3 Bft) 97,87 %
13.04.2017 17:46 12,9 C 13,9 C 12,8 C 60 % 0 lf 1014,5 hPa 0,0 l/m 0 min 0 min 113 W/m 18,8 km/h (3 Bft) 97,83 %
13.04.2017 17:48 12,9 C 13,9 C 12,8 C 61 % 0 lf 1014,5 hPa 0,0 l/m 0 min 0 min 101 W/m 14,6 km/h (3 Bft) 97,87 %
13.04.2017 17:50 12,9 C 13,9 C 12,8 C 61 % 0 lf 1014,5 hPa 0,0 l/m 0 min 0 min 85 W/m 14,6 km/h (3 Bft) 97,87 %
13.04.2017 17:52 12,9 C 13,3 C 12,2 C 61 % 0 lf 1014,5 hPa 0,0 l/m 0 min 0 min 75 W/m 16,7 km/h (3 Bft) 100,00 %
13.04.2017 17:54 12,9 C 13,3 C 12,2 C 60 % 0 lf 1014,5 hPa 0,0 l/m 0 min 0 min 82 W/m 20,9 km/h (4 Bft) 100,00 %
13.04.2017 17:56 12,8 C 13,3 C 12,2 C 60 % 0 lf 1014,4 hPa 0,0 l/m 0 min 0 min 92 W/m 23,0 km/h (4 Bft) 97,87 %
13.04.2017 17:58 12,8 C 13,3 C 12,2 C 60 % 0 lf 1014,5 hPa 0,0 l/m 0 min 0 min 96 W/m 16,7 km/h (3 Bft) 100,00 %
13.04.2017 18:00 12,8 C 13,3 C 12,2 C 60 % 0 lf 1014,5 hPa 0,0 l/m 0 min 0 min 90 W/m 14,6 km/h (3 Bft) 100,00 %
13.04.2017 18:02 12,8 C 13,3 C 12,2 C 61 % 0 lf 1014,5 hPa 0,0 l/m 0 min 0 min 87 W/m 14,6 km/h (3 Bft) 100,00 %
13.04.2017 18:04 12,8 C 13,3 C 12,2 C 61 % 0 lf 1014,5 hPa 0,0 l/m 0 min 0 min 86 W/m 18,8 km/h (3 Bft) 100,00 %
13.04.2017 18:06 12,8 C 13,3 C 12,2 C 61 % 0 lf 1014,5 hPa 0,0 l/m 0 min 0 min 87 W/m 18,8 km/h (3 Bft) 97,87 %
13.04.2017 18:08 12,7 C 13,3 C 11,7 C 61 % 0 lf 1014,5 hPa 0,0 l/m 0 min 0 min 120 W/m 20,9 km/h (4 Bft) 100,00 %
13.04.2017 18:10 12,7 C 13,3 C 11,7 C 60 % 0 lf 1014,5 hPa 0,0 l/m 0 min 0 min 96 W/m 18,8 km/h (3 Bft) 100,00 %
13.04.2017 18:12 12,7 C 13,3 C 12,2 C 60 % 0 lf 1014,4 hPa 0,0 l/m 0 min 0 min 112 W/m 25,1 km/h (4 Bft) 100,00 %
13.04.2017 18:14 12,7 C 13,3 C 12,2 C 59 % 0 lf 1014,4 hPa 0,0 l/m 0 min 0 min 136 W/m 23,0 km/h (4 Bft) 100,00 %
13.04.2017 18:16 12,7 C 13,9 C 12,2 C 60 % 0 lf 1014,5 hPa 0,0 l/m 0 min 0 min 135 W/m 25,1 km/h (4 Bft) 100,00 %
13.04.2017 18:18 12,6 C 13,9 C 12,2 C 60 % 0 lf 1014,4 hPa 0,0 l/m 0 min 0 min 109 W/m 23,0 km/h (4 Bft) 97,87 %
13.04.2017 18:20 12,6 C 13,3 C 12,2 C 60 % 0 lf 1014,5 hPa 0,0 l/m 0 min 0 min 100 W/m 18,8 km/h (3 Bft) 100,00 %
13.04.2017 18:22 12,6 C 13,3 C 12,2 C 60 % 0 lf 1014,4 hPa 0,0 l/m 0 min 0 min 106 W/m 18,8 km/h (3 Bft) 100,00 %
13.04.2017 18:24 12,6 C 13,3 C 12,2 C 60 % 0 lf 1014,5 hPa 0,0 l/m 0 min 0 min 113 W/m 18,8 km/h (3 Bft) 97,87 %
13.04.2017 18:26 12,6 C 13,9 C 12,2 C 60 % 0 lf 1014,5 hPa 0,0 l/m 0 min 0 min 120 W/m 18,8 km/h (3 Bft) 97,87 %
13.04.2017 18:28 12,6 C 13,9 C 12,2 C 60 % 0 lf 1014,5 hPa 0,0 l/m 0 min 0 min 125 W/m 23,0 km/h (4 Bft) 100,00 %
13.04.2017 18:30 12,6 C 13,3 C 12,2 C 59 % 0 lf 1014,5 hPa 0,0 l/m 0 min 0 min 128 W/m 25,1 km/h (4 Bft) 100,00 %
13.04.2017 18:32 12,6 C 13,3 C 12,2 C 59 % 0 lf 1014,5 hPa 0,0 l/m 0 min 0 min 124 W/m 23,0 km/h (4 Bft) 97,87 %
13.04.2017 18:34 12,6 C 13,3 C 12,2 C 59 % 0 lf 1014,5 hPa 0,0 l/m 0 min 0 min 113 W/m 18,8 km/h (3 Bft) 100,00 %
13.04.2017 18:36 12,6 C 13,3 C 12,2 C 59 % 0 lf 1014,5 hPa 0,0 l/m 0 min 0 min 92 W/m 14,6 km/h (3 Bft) 100,00 %
13.04.2017 18:38 12,6 C 13,3 C 12,2 C 59 % 0 lf 1014,5 hPa 0,0 l/m 0 min 0 min 89 W/m 16,7 km/h (3 Bft) 100,00 %
13.04.2017 18:40 12,6 C 13,3 C 12,2 C 60 % 0 lf 1014,4 hPa 0,0 l/m 0 min 0 min 95 W/m 10,5 km/h (2 Bft) 100,00 %
13.04.2017 18:42 12,6 C 13,3 C 12,2 C 60 % 0 lf 1014,5 hPa 0,0 l/m 0 min 0 min 97 W/m 25,1 km/h (4 Bft) 100,00 %
13.04.2017 18:44 12,6 C 13,3 C 12,2 C 60 % 0 lf 1014,5 hPa 0,0 l/m 0 min 0 min 100 W/m 14,6 km/h (3 Bft) 100,00 %
13.04.2017 18:46 12,6 C 13,3 C 11,7 C 61 % 0 lf 1014,4 hPa 0,0 l/m 0 min 0 min 100 W/m 20,9 km/h (4 Bft) 100,00 %
13.04.2017 18:48 12,5 C 13,3 C 12,2 C 61 % 0 lf 1014,5 hPa 0,0 l/m 0 min 0 min 107 W/m 12,6 km/h (3 Bft) 100,00 %
13.04.2017 18:50 12,6 C 13,3 C 12,2 C 61 % 0 lf 1014,5 hPa 0,0 l/m 0 min 0 min 117 W/m 16,7 km/h (3 Bft) 100,00 %
13.04.2017 18:52 12,5 C 13,3 C 12,2 C 61 % 0 lf 1014,5 hPa 0,0 l/m 2 min 0 min 118 W/m 25,1 km/h (4 Bft) 100,00 %
13.04.2017 18:54 12,5 C 13,3 C 12,2 C 61 % 0 lf 1014,5 hPa 0,0 l/m 0 min 0 min 103 W/m 14,6 km/h (3 Bft) 100,00 %
13.04.2017 18:56 12,5 C 13,3 C 12,2 C 61 % 0 lf 1014,4 hPa 0,0 l/m 0 min 0 min 92 W/m 14,6 km/h (3 Bft) 100,00 %
13.04.2017 18:58 12,5 C 13,3 C 11,7 C 60 % 0 lf 1014,5 hPa 0,0 l/m 0 min 0 min 83 W/m 23,0 km/h (4 Bft) 97,83 %
13.04.2017 19:00 12,5 C 13,3 C 11,7 C 61 % 0 lf 1014,5 hPa 0,0 l/m 0 min 0 min 75 W/m 14,6 km/h (3 Bft) 100,00 %
13.04.2017 19:02 12,4 C 12,8 C 11,1 C 61 % 0 lf 1014,5 hPa 0,0 l/m 0 min 0 min 73 W/m 16,7 km/h (3 Bft) 97,87 %
13.04.2017 19:04 12,4 C 12,8 C 11,1 C 60 % 0 lf 1014,5 hPa 0,0 l/m 0 min 0 min 72 W/m 20,9 km/h (4 Bft) 97,87 %
13.04.2017 19:06 12,4 C 12,8 C 11,1 C 60 % 0 lf 1014,5 hPa 0,0 l/m 0 min 0 min 70 W/m 16,7 km/h (3 Bft) 97,87 %
13.04.2017 19:08 12,4 C 12,8 C 11,1 C 60 % 0 lf 1014,5 hPa 0,0 l/m 0 min 0 min 70 W/m 16,7 km/h (3 Bft) 97,87 %
13.04.2017 19:10 12,4 C 12,8 C 11,1 C 61 % 0 lf 1014,5 hPa 0,0 l/m 0 min 0 min 70 W/m 18,8 km/h (3 Bft) 100,00 %
13.04.2017 19:12 12,3 C 12,8 C 11,1 C 60 % 0 lf 1014,5 hPa 0,0 l/m 0 min 0 min 69 W/m 14,6 km/h (3 Bft) 95,74 %
13.04.2017 19:14 12,3 C 12,8 C 11,1 C 61 % 0 lf 1014,6 hPa 0,0 l/m 0 min 0 min 66 W/m 16,7 km/h (3 Bft) 95,74 %
13.04.2017 19:16 12,3 C 12,8 C 11,1 C 61 % 0 lf 1014,5 hPa 0,0 l/m 0 min 0 min 65 W/m 12,6 km/h (3 Bft) 100,00 %
13.04.2017 19:18 12,3 C 12,8 C 11,1 C 61 % 0 lf 1014,5 hPa 0,0 l/m 0 min 0 min 66 W/m 25,1 km/h (4 Bft) 97,87 %
13.04.2017 19:20 12,3 C 12,8 C 11,7 C 62 % 0 lf 1014,6 hPa 0,0 l/m 0 min 0 min 73 W/m 14,6 km/h (3 Bft) 95,65 %
13.04.2017 19:22 12,3 C 12,8 C 11,7 C 63 % 0 lf 1014,6 hPa 0,0 l/m 2 min 0 min 81 W/m 16,7 km/h (3 Bft) 93,62 %
13.04.2017 19:24 12,2 C 12,8 C 11,7 C 62 % 0 lf 1014,6 hPa 0,0 l/m 2 min 0 min 88 W/m 16,7 km/h (3 Bft) 93,62 %
13.04.2017 19:26 12,2 C 12,8 C 11,7 C 62 % 0 lf 1014,6 hPa 0,0 l/m 2 min 0 min 96 W/m 18,8 km/h (3 Bft) 91,49 %
13.04.2017 19:28 12,2 C 12,8 C 11,7 C 62 % 0 lf 1014,6 hPa 0,0 l/m 2 min 0 min 97 W/m 12,6 km/h (3 Bft) 87,23 %
13.04.2017 19:30 12,2 C 12,8 C 11,7 C 63 % 0 lf 1014,6 hPa 0,0 l/m 2 min 0 min 86 W/m 23,0 km/h (4 Bft) 89,36 %
13.04.2017 19:32 12,2 C 12,8 C 11,7 C 62 % 0 lf 1014,6 hPa 0,0 l/m 2 min 0 min 80 W/m 23,0 km/h (4 Bft) 93,48 %
13.04.2017 19:34 12,2 C 12,8 C 11,1 C 63 % 0 lf 1014,6 hPa 0,0 l/m 2 min 0 min 71 W/m 14,6 km/h (3 Bft) 91,49 %
13.04.2017 19:36 12,2 C 12,8 C 11,1 C 62 % 0 lf 1014,7 hPa 0,0 l/m 2 min 0 min 64 W/m 14,6 km/h (3 Bft) 91,49 %
13.04.2017 19:38 12,2 C 12,2 C 11,1 C 63 % 0 lf 1014,7 hPa 0,0 l/m 2 min 0 min 59 W/m 12,6 km/h (3 Bft) 94,00 %
13.04.2017 19:40 12,2 C 12,2 C 10,6 C 63 % 0 lf 1014,7 hPa 0,0 l/m 0 min 0 min 54 W/m 16,7 km/h (3 Bft) 93,62 %
13.04.2017 19:42 12,1 C 12,2 C 10,6 C 63 % 0 lf 1014,7 hPa 0,0 l/m 0 min 0 min 50 W/m 18,8 km/h (3 Bft) 91,30 %
13.04.2017 19:44 12,1 C 12,2 C 10,6 C 62 % 0 lf 1014,7 hPa 0,0 l/m 0 min 0 min 49 W/m 18,8 km/h (3 Bft) 89,36 %
13.04.2017 19:46 12,1 C 12,2 C 10,6 C 62 % 0 lf 1014,7 hPa 0,0 l/m 2 min 0 min 47 W/m 16,7 km/h (3 Bft) 91,49 %
13.04.2017 19:48 12,0 C 11,7 C 10,6 C 63 % 0 lf 1014,7 hPa 0,0 l/m 2 min 0 min 45 W/m 23,0 km/h (4 Bft) 89,36 %
13.04.2017 19:50 12,0 C 11,7 C 10,0 C 63 % 0 lf 1014,7 hPa 0,0 l/m 0 min 0 min 40 W/m 18,8 km/h (3 Bft) 89,36 %
13.04.2017 19:52 11,9 C 11,7 C 10,0 C 62 % 0 lf 1014,7 hPa 0,0 l/m 0 min 0 min 34 W/m 16,7 km/h (3 Bft) 93,62 %
13.04.2017 19:54 11,9 C 11,7 C 10,0 C 62 % 0 lf 1014,7 hPa 0,0 l/m 0 min 0 min 33 W/m 16,7 km/h (3 Bft) 91,30 %
13.04.2017 19:56 11,8 C 11,7 C 10,0 C 62 % 0 lf 1014,7 hPa 0,0 l/m 0 min 0 min 31 W/m 18,8 km/h (3 Bft) 89,36 %
13.04.2017 19:58 11,8 C 11,1 C 9,4 C 62 % 0 lf 1014,8 hPa 0,0 l/m 0 min 0 min 30 W/m 20,9 km/h (4 Bft) 93,62 %
13.04.2017 20:00 11,8 C 11,1 C 9,4 C 62 % 0 lf 1014,7 hPa 0,0 l/m 2 min 0 min 30 W/m 16,7 km/h (3 Bft) 93,62 %
13.04.2017 20:02 11,7 C 11,1 C 9,4 C 63 % 0 lf 1014,8 hPa 0,0 l/m 2 min 0 min 32 W/m 14,6 km/h (3 Bft) 87,23 %
13.04.2017 20:04 11,7 C 11,1 C 9,4 C 63 % 0 lf 1014,8 hPa 0,0 l/m 2 min 0 min 34 W/m 20,9 km/h (4 Bft) 93,62 %
13.04.2017 20:06 11,7 C 11,1 C 9,4 C 63 % 0 lf 1014,7 hPa 0,0 l/m 2 min 0 min 35 W/m 20,9 km/h (4 Bft) 93,48 %
13.04.2017 20:08 11,6 C 11,1 C 9,4 C 63 % 0 lf 1014,7 hPa 0,0 l/m 2 min 0 min 31 W/m 16,7 km/h (3 Bft) 85,11 %
13.04.2017 20:10 11,6 C 11,1 C 9,4 C 63 % 0 lf 1014,8 hPa 0,0 l/m 2 min 0 min 27 W/m 16,7 km/h (3 Bft) 93,62 %
13.04.2017 20:12 11,6 C 11,1 C 9,4 C 63 % 0 lf 1014,8 hPa 0,0 l/m 2 min 0 min 22 W/m 10,5 km/h (2 Bft) 91,49 %
13.04.2017 20:14 11,5 C 10,6 C 8,9 C 63 % 0 lf 1014,8 hPa 0,0 l/m 0 min 0 min 18 W/m 18,8 km/h (3 Bft) 91,49 %
13.04.2017 20:16 11,4 C 10,6 C 8,9 C 63 % 0 lf 1014,8 hPa 0,0 l/m 0 min 0 min 16 W/m 14,6 km/h (3 Bft) 95,74 %
13.04.2017 20:18 11,4 C 10,6 C 8,9 C 64 % 0 lf 1014,9 hPa 0,0 l/m 0 min 0 min 14 W/m 14,6 km/h (3 Bft) 95,65 %
13.04.2017 20:20 11,3 C 10,6 C 8,9 C 64 % 0 lf 1014,9 hPa 0,0 l/m 0 min 0 min 13 W/m 14,6 km/h (3 Bft) 95,74 %
13.04.2017 20:22 11,3 C 10,0 C 8,3 C 64 % 0 lf 1014,9 hPa 0,0 l/m 0 min 0 min 12 W/m 14,6 km/h (3 Bft) 97,87 %
13.04.2017 20:24 11,3 C 10,0 C 8,3 C 64 % 0 lf 1015,0 hPa 0,0 l/m 0 min 0 min 11 W/m 10,5 km/h (2 Bft) 95,74 %
13.04.2017 20:26 11,2 C 10,0 C 7,8 C 64 % 0 lf 1015,0 hPa 0,0 l/m 0 min 0 min 11 W/m 8,4 km/h (2 Bft) 97,87 %
13.04.2017 20:28 11,2 C 10,0 C 7,8 C 64 % 0 lf 1015,0 hPa 0,0 l/m 0 min 0 min 10 W/m 10,5 km/h (2 Bft) 95,74 %
13.04.2017 20:30 11,2 C 9,4 C 7,8 C 64 % 0 lf 1015,0 hPa 0,0 l/m 0 min 0 min 9 W/m 12,6 km/h (3 Bft) 100,00 %
13.04.2017 20:32 11,1 C 9,4 C 7,2 C 65 % 0 lf 1015,0 hPa 0,0 l/m 0 min 0 min 7 W/m 12,6 km/h (3 Bft) 100,00 %
13.04.2017 20:34 11,1 C 9,4 C 7,2 C 65 % 0 lf 1015,0 hPa 0,0 l/m 0 min 0 min 7 W/m 12,6 km/h (3 Bft) 100,00 %
13.04.2017 20:36 11,0 C 9,4 C 7,2 C 65 % 0 lf 1015,0 hPa 0,0 l/m 0 min 0 min 7 W/m 8,4 km/h (2 Bft) 93,62 %
13.04.2017 20:38 10,9 C 9,4 C 7,2 C 65 % 0 lf 1015,1 hPa 0,0 l/m 0 min 0 min 6 W/m 8,4 km/h (2 Bft) 97,87 %
13.04.2017 20:40 10,9 C 8,9 C 6,7 C 65 % 0 lf 1015,1 hPa 0,0 l/m 0 min 0 min 5 W/m 8,4 km/h (2 Bft) 100,00 %
13.04.2017 20:42 10,8 C 8,9 C 6,7 C 65 % 0 lf 1015,1 hPa 0,0 l/m 0 min 0 min 5 W/m 12,6 km/h (3 Bft) 100,00 %
13.04.2017 20:44 10,8 C 8,9 C 6,7 C 65 % 0 lf 1015,1 hPa 0,0 l/m 0 min 0 min 5 W/m 10,5 km/h (2 Bft) 100,00 %
13.04.2017 20:46 10,7 C 8,9 C 6,7 C 66 % 0 lf 1015,2 hPa 0,0 l/m 0 min 0 min 0 W/m 10,5 km/h (2 Bft) 100,00 %
13.04.2017 20:48 10,7 C 8,9 C 6,7 C 66 % 0 lf 1015,2 hPa 0,0 l/m 0 min 0 min 0 W/m 8,4 km/h (2 Bft) 95,74 %
13.04.2017 20:50 10,6 C 8,3 C 6,1 C 66 % 0 lf 1015,3 hPa 0,0 l/m 0 min 0 min 0 W/m 6,3 km/h (2 Bft) 97,87 %
13.04.2017 20:52 10,5 C 8,3 C 6,1 C 66 % 0 lf 1015,3 hPa 0,0 l/m 0 min 0 min 0 W/m 6,3 km/h (2 Bft) 97,83 %
13.04.2017 20:54 10,4 C 8,3 C 6,1 C 66 % 0 lf 1015,3 hPa 0,0 l/m 0 min 0 min 0 W/m 8,4 km/h (2 Bft) 97,87 %
13.04.2017 20:56 10,4 C 8,3 C 6,1 C 66 % 0 lf 1015,3 hPa 0,0 l/m 0 min 0 min 0 W/m 8,4 km/h (2 Bft) 97,87 %
13.04.2017 20:58 10,3 C 8,3 C 6,1 C 66 % 0 lf 1015,4 hPa 0,0 l/m 0 min 0 min 0 W/m 6,3 km/h (2 Bft) 100,00 %
13.04.2017 21:00 10,2 C 7,8 C 5,6 C 67 % 0 lf 1015,4 hPa 0,0 l/m 0 min 0 min 0 W/m 8,4 km/h (2 Bft) 97,87 %
13.04.2017 21:02 10,2 C 8,3 C 5,6 C 67 % 0 lf 1015,4 hPa 0,0 l/m 0 min 0 min 0 W/m 6,3 km/h (2 Bft) 95,74 %
13.04.2017 21:04 10,1 C 7,8 C 5,6 C 67 % 0 lf 1015,5 hPa 0,0 l/m 0 min 0 min 0 W/m 4,2 km/h (1 Bft) 100,00 %
13.04.2017 21:06 10,0 C 7,8 C 5,6 C 67 % 0 lf 1015,4 hPa 0,0 l/m 0 min 0 min 0 W/m 6,3 km/h (2 Bft) 97,87 %
13.04.2017 21:08 9,9 C 7,8 C 5,6 C 68 % 0 lf 1015,4 hPa 0,0 l/m 0 min 0 min 0 W/m 6,3 km/h (2 Bft) 100,00 %
13.04.2017 21:10 9,8 C 7,2 C 5,6 C 68 % 0 lf 1015,4 hPa 0,0 l/m 0 min 0 min 0 W/m 6,3 km/h (2 Bft) 91,49 %
13.04.2017 21:12 9,8 C 7,2 C 5,6 C 68 % 0 lf 1015,4 hPa 0,0 l/m 0 min 0 min 0 W/m 6,3 km/h (2 Bft) 97,87 %
13.04.2017 21:14 9,7 C 7,2 C 5,0 C 68 % 0 lf 1015,4 hPa 0,0 l/m 0 min 0 min 0 W/m 10,5 km/h (2 Bft) 95,74 %
13.04.2017 21:16 9,6 C 7,2 C 5,0 C 68 % 0 lf 1015,4 hPa 0,0 l/m 0 min 0 min 0 W/m 8,4 km/h (2 Bft) 93,48 %
13.04.2017 21:18 9,6 C 7,2 C 5,0 C 69 % 0 lf 1015,4 hPa 0,0 l/m 0 min 0 min 0 W/m 8,4 km/h (2 Bft) 97,87 %
13.04.2017 21:20 9,4 C 7,2 C 5,0 C 69 % 0 lf 1015,4 hPa 0,0 l/m 0 min 0 min 0 W/m 8,4 km/h (2 Bft) 95,74 %
13.04.2017 21:22 9,4 C 7,2 C 5,0 C 69 % 0 lf 1015,4 hPa 0,0 l/m 0 min 0 min 0 W/m 8,4 km/h (2 Bft) 95,74 %
13.04.2017 21:24 9,3 C 7,2 C 5,0 C 69 % 0 lf 1015,4 hPa 0,0 l/m 0 min 0 min 0 W/m 8,4 km/h (2 Bft) 97,87 %
13.04.2017 21:26 9,3 C 7,2 C 5,0 C 69 % 0 lf 1015,4 hPa 0,0 l/m 0 min 0 min 0 W/m 8,4 km/h (2 Bft) 95,74 %
13.04.2017 21:28 9,2 C 7,2 C 5,0 C 70 % 0 lf 1015,5 hPa 0,0 l/m 0 min 0 min 0 W/m 8,4 km/h (2 Bft) 95,65 %
13.04.2017 21:30 9,2 C 7,2 C 5,0 C 70 % 0 lf 1015,5 hPa 0,0 l/m 0 min 0 min 0 W/m 8,4 km/h (2 Bft) 93,62 %
13.04.2017 21:32 9,1 C 7,2 C 5,0 C 70 % 0 lf 1015,5 hPa 0,0 l/m 0 min 0 min 0 W/m 6,3 km/h (2 Bft) 95,74 %
13.04.2017 21:34 9,0 C 6,7 C 5,0 C 70 % 0 lf 1015,5 hPa 0,0 l/m 0 min 0 min 0 W/m 6,3 km/h (2 Bft) 97,87 %
13.04.2017 21:36 8,9 C 6,7 C 4,4 C 70 % 0 lf 1015,5 hPa 0,0 l/m 0 min 0 min 0 W/m 8,4 km/h (2 Bft) 97,87 %
13.04.2017 21:38 8,9 C 6,7 C 5,0 C 71 % 0 lf 1015,5 hPa 0,0 l/m 0 min 0 min 0 W/m 8,4 km/h (2 Bft) 95,74 %
13.04.2017 21:40 8,8 C 6,7 C 5,0 C 71 % 0 lf 1015,5 hPa 0,0 l/m 0 min 0 min 0 W/m 8,4 km/h (2 Bft) 100,00 %
13.04.2017 21:42 8,8 C 6,7 C 4,4 C 71 % 0 lf 1015,5 hPa 0,0 l/m 0 min 0 min 2 W/m 6,3 km/h (2 Bft) 100,00 %
13.04.2017 21:44 8,7 C 6,7 C 4,4 C 71 % 0 lf 1015,5 hPa 0,0 l/m 0 min 0 min 5 W/m 6,3 km/h (2 Bft) 97,87 %
13.04.2017 21:46 8,7 C 6,7 C 4,4 C 71 % 0 lf 1015,6 hPa 0,0 l/m 0 min 0 min 5 W/m 6,3 km/h (2 Bft) 100,00 %
13.04.2017 21:48 8,6 C 6,7 C 4,4 C 71 % 0 lf 1015,5 hPa 0,0 l/m 0 min 0 min 5 W/m 6,3 km/h (2 Bft) 100,00 %
13.04.2017 21:50 8,6 C 6,7 C 4,4 C 71 % 0 lf 1015,5 hPa 0,0 l/m 0 min 0 min 4 W/m 4,2 km/h (1 Bft) 95,74 %
13.04.2017 21:52 8,5 C 6,7 C 4,4 C 71 % 0 lf 1015,5 hPa 0,0 l/m 0 min 0 min 0 W/m 6,3 km/h (2 Bft) 97,83 %
13.04.2017 21:54 8,4 C 6,1 C 4,4 C 72 % 0 lf 1015,5 hPa 0,0 l/m 0 min 0 min 0 W/m 6,3 km/h (2 Bft) 100,00 %
13.04.2017 21:56 8,4 C 6,1 C 4,4 C 72 % 0 lf 1015,5 hPa 0,0 l/m 0 min 0 min 0 W/m 6,3 km/h (2 Bft) 97,87 %
13.04.2017 21:58 8,3 C 6,1 C 3,9 C 72 % 0 lf 1015,5 hPa 0,0 l/m 0 min 0 min 0 W/m 4,2 km/h (1 Bft) 100,00 %
13.04.2017 22:00 8,3 C 6,1 C 3,9 C 72 % 0 lf 1015,5 hPa 0,0 l/m 0 min 0 min 0 W/m 4,2 km/h (1 Bft) 100,00 %
13.04.2017 22:02 8,2 C 6,1 C 3,9 C 72 % 0 lf 1015,5 hPa 0,0 l/m 0 min 0 min 0 W/m 6,3 km/h (2 Bft) 93,48 %
13.04.2017 22:04 8,2 C 6,1 C 3,9 C 73 % 0 lf 1015,6 hPa 0,0 l/m 0 min 0 min 0 W/m 8,4 km/h (2 Bft) 100,00 %
13.04.2017 22:06 8,1 C 6,1 C 3,9 C 73 % 0 lf 1015,6 hPa 0,0 l/m 0 min 0 min 0 W/m 6,3 km/h (2 Bft) 100,00 %
13.04.2017 22:08 8,1 C 6,1 C 3,9 C 73 % 0 lf 1015,6 hPa 0,0 l/m 0 min 0 min 0 W/m 6,3 km/h (2 Bft) 100,00 %
13.04.2017 22:10 8,0 C 6,1 C 3,9 C 73 % 0 lf 1015,6 hPa 0,0 l/m 0 min 0 min 0 W/m 6,3 km/h (2 Bft) 100,00 %
13.04.2017 22:12 7,9 C 5,6 C 3,9 C 73 % 0 lf 1015,6 hPa 0,0 l/m 0 min 0 min 0 W/m 4,2 km/h (1 Bft) 97,87 %
13.04.2017 22:14 7,9 C 5,6 C 3,9 C 73 % 0 lf 1015,5 hPa 0,0 l/m 0 min 0 min 0 W/m 4,2 km/h (1 Bft) 100,00 %
13.04.2017 22:16 7,8 C 5,6 C 3,9 C 74 % 0 lf 1015,6 hPa 0,0 l/m 0 min 0 min 0 W/m 4,2 km/h (1 Bft) 95,74 %
13.04.2017 22:18 7,8 C 5,6 C 3,9 C 74 % 0 lf 1015,6 hPa 0,0 l/m 0 min 0 min 0 W/m 4,2 km/h (1 Bft) 97,87 %
13.04.2017 22:20 7,7 C 5,6 C 3,9 C 74 % 0 lf 1015,6 hPa 0,0 l/m 0 min 0 min 0 W/m 2,1 km/h (1 Bft) 95,74 %
13.04.2017 22:22 7,7 C 5,6 C 3,9 C 74 % 0 lf 1015,6 hPa 0,0 l/m 0 min 0 min 0 W/m 4,2 km/h (1 Bft) 97,87 %
13.04.2017 22:24 7,7 C 5,6 C 3,9 C 74 % 0 lf 1015,7 hPa 0,0 l/m 0 min 0 min 0 W/m 2,1 km/h (1 Bft) 100,00 %
13.04.2017 22:26 7,6 C 5,6 C 3,9 C 75 % 0 lf 1015,7 hPa 0,0 l/m 0 min 0 min 0 W/m 0,0 km/h (0 Bft) 93,48 %
13.04.2017 22:28 7,6 C 5,0 C 3,9 C 75 % 0 lf 1015,7 hPa 0,0 l/m 0 min 0 min 4 W/m 0,0 km/h (0 Bft) 95,74 %
13.04.2017 22:30 7,5 C 5,0 C 3,3 C 75 % 0 lf 1015,7 hPa 0,0 l/m 0 min 0 min 5 W/m 2,1 km/h (1 Bft) 95,74 %
13.04.2017 22:32 7,4 C 5,0 C 3,3 C 75 % 0 lf 1015,7 hPa 0,0 l/m 0 min 0 min 1 W/m 2,1 km/h (1 Bft) 93,62 %
13.04.2017 22:34 7,4 C 5,0 C 3,3 C 75 % 0 lf 1015,7 hPa 0,0 l/m 0 min 0 min 5 W/m 4,2 km/h (1 Bft) 95,74 %
13.04.2017 22:36 7,4 C 5,0 C 3,3 C 75 % 0 lf 1015,7 hPa 0,0 l/m 0 min 0 min 5 W/m 2,1 km/h (1 Bft) 93,62 %
13.04.2017 22:38 7,3 C 5,0 C 3,3 C 75 % 0 lf 1015,8 hPa 0,0 l/m 0 min 0 min 5 W/m 2,1 km/h (1 Bft) 95,65 %
13.04.2017 22:40 7,3 C 5,0 C 3,3 C 76 % 0 lf 1015,8 hPa 0,0 l/m 0 min 0 min 1 W/m 2,1 km/h (1 Bft) 95,74 %
13.04.2017 22:42 7,2 C 5,0 C 3,3 C 76 % 0 lf 1015,8 hPa 0,0 l/m 0 min 0 min 2 W/m 4,2 km/h (1 Bft) 93,62 %
13.04.2017 22:44 7,2 C 5,0 C 3,3 C 76 % 0 lf 1015,8 hPa 0,0 l/m 0 min 0 min 4 W/m 2,1 km/h (1 Bft) 93,62 %
13.04.2017 22:46 7,2 C 5,0 C 3,3 C 76 % 0 lf 1015,9 hPa 0,0 l/m 0 min 0 min 0 W/m 2,1 km/h (1 Bft) 93,62 %
13.04.2017 22:48 7,1 C 5,0 C 3,3 C 76 % 0 lf 1015,9 hPa 0,0 l/m 0 min 0 min 0 W/m 2,1 km/h (1 Bft) 93,62 %
13.04.2017 22:50 7,1 C 5,0 C 3,3 C 76 % 0 lf 1015,8 hPa 0,0 l/m 0 min 0 min 0 W/m 0,0 km/h (0 Bft) 95,65 %
13.04.2017 22:52 7,0 C 5,0 C 3,3 C 76 % 0 lf 1015,9 hPa 0,0 l/m 0 min 0 min 0 W/m 0,0 km/h (0 Bft) 93,62 %
13.04.2017 22:54 6,9 C 5,6 C 3,3 C 76 % 0 lf 1015,8 hPa 0,0 l/m 0 min 0 min 0 W/m 2,1 km/h (1 Bft) 95,74 %
13.04.2017 22:56 6,9 C 5,6 C 3,3 C 76 % 0 lf 1015,8 hPa 0,0 l/m 0 min 0 min 0 W/m 2,1 km/h (1 Bft) 97,87 %
13.04.2017 22:58 6,9 C 5,6 C 3,3 C 77 % 0 lf 1015,8 hPa 0,0 l/m 0 min 0 min 0 W/m 0,0 km/h (0 Bft) 95,74 %
13.04.2017 23:00 6,8 C 5,6 C 3,3 C 77 % 0 lf 1015,8 hPa 0,0 l/m 0 min 0 min 0 W/m 0,0 km/h (0 Bft) 95,74 %
13.04.2017 23:02 6,8 C 5,0 C 3,3 C 77 % 0 lf 1015,9 hPa 0,0 l/m 0 min 0 min 0 W/m 2,1 km/h (1 Bft) 95,65 %
13.04.2017 23:04 6,8 C 5,0 C 2,8 C 77 % 0 lf 1015,9 hPa 0,0 l/m 0 min 0 min 0 W/m 4,2 km/h (1 Bft) 95,74 %
13.04.2017 23:06 6,7 C 5,0 C 2,8 C 77 % 0 lf 1015,8 hPa 0,0 l/m 0 min 0 min 0 W/m 2,1 km/h (1 Bft) 93,62 %
13.04.2017 23:08 6,7 C 5,0 C 2,8 C 78 % 0 lf 1015,8 hPa 0,0 l/m 0 min 0 min 0 W/m 2,1 km/h (1 Bft) 95,74 %
13.04.2017 23:10 6,6 C 4,4 C 2,8 C 78 % 0 lf 1015,9 hPa 0,0 l/m 0 min 0 min 2 W/m 2,1 km/h (1 Bft) 89,36 %
13.04.2017 23:12 6,6 C 4,4 C 2,8 C 77 % 0 lf 1015,9 hPa 0,0 l/m 0 min 0 min 4 W/m 2,1 km/h (1 Bft) 95,74 %
13.04.2017 23:14 6,5 C 4,4 C 2,8 C 77 % 0 lf 1015,9 hPa 0,0 l/m 0 min 0 min 2 W/m 4,2 km/h (1 Bft) 95,65 %
13.04.2017 23:16 6,4 C 4,4 C 2,8 C 77 % 0 lf 1015,9 hPa 0,0 l/m 0 min 0 min 5 W/m 2,1 km/h (1 Bft) 91,49 %
13.04.2017 23:18 6,4 C 4,4 C 2,8 C 78 % 0 lf 1015,9 hPa 0,0 l/m 0 min 0 min 5 W/m 2,1 km/h (1 Bft) 93,62 %
13.04.2017 23:20 6,4 C 4,4 C 2,8 C 78 % 0 lf 1015,9 hPa 0,0 l/m 0 min 0 min 5 W/m 0,0 km/h (0 Bft) 93,62 %
13.04.2017 23:22 6,4 C 4,4 C 2,8 C 78 % 0 lf 1015,9 hPa 0,0 l/m 0 min 0 min 0 W/m 0,0 km/h (0 Bft) 95,74 %
13.04.2017 23:24 6,3 C 4,4 C 2,8 C 78 % 0 lf 1015,9 hPa 0,0 l/m 0 min 0 min 0 W/m 0,0 km/h (0 Bft) 95,65 %
13.04.2017 23:26 6,3 C 3,9 C 2,8 C 78 % 0 lf 1015,9 hPa 0,0 l/m 0 min 0 min 5 W/m 0,0 km/h (0 Bft) 95,74 %
13.04.2017 23:28 6,2 C 3,9 C 2,8 C 78 % 0 lf 1016,0 hPa 0,0 l/m 0 min 0 min 1 W/m 0,0 km/h (0 Bft) 93,62 %
13.04.2017 23:30 6,2 C 4,4 C 2,8 C 78 % 0 lf 1015,9 hPa 0,0 l/m 0 min 0 min 0 W/m 2,1 km/h (1 Bft) 97,87 %
13.04.2017 23:32 6,1 C 4,4 C 2,8 C 79 % 0 lf 1015,9 hPa 0,0 l/m 0 min 0 min 0 W/m 4,2 km/h (1 Bft) 100,00 %
13.04.2017 23:34 6,1 C 3,9 C 2,8 C 79 % 0 lf 1015,9 hPa 0,0 l/m 0 min 0 min 2 W/m 4,2 km/h (1 Bft) 100,00 %
13.04.2017 23:36 6,1 C 3,9 C 2,8 C 79 % 0 lf 1016,0 hPa 0,0 l/m 0 min 0 min 0 W/m 4,2 km/h (1 Bft) 97,83 %
13.04.2017 23:38 6,0 C 4,4 C 2,8 C 79 % 0 lf 1016,0 hPa 0,0 l/m 0 min 0 min 0 W/m 2,1 km/h (1 Bft) 97,87 %
13.04.2017 23:40 6,0 C 3,9 C 2,8 C 79 % 0 lf 1016,0 hPa 0,0 l/m 0 min 0 min 2 W/m 2,1 km/h (1 Bft) 97,87 %
13.04.2017 23:42 5,9 C 3,9 C 2,8 C 79 % 0 lf 1016,1 hPa 0,0 l/m 0 min 0 min 2 W/m 2,1 km/h (1 Bft) 100,00 %
13.04.2017 23:44 5,9 C 3,9 C 2,8 C 79 % 0 lf 1016,1 hPa 0,0 l/m 0 min 0 min 0 W/m 2,1 km/h (1 Bft) 95,74 %
13.04.2017 23:46 5,9 C 3,9 C 2,2 C 79 % 0 lf 1016,1 hPa 0,0 l/m 0 min 0 min 0 W/m 2,1 km/h (1 Bft) 97,87 %
13.04.2017 23:48 5,8 C 3,9 C 2,2 C 80 % 0 lf 1016,1 hPa 0,0 l/m 0 min 0 min 0 W/m 4,2 km/h (1 Bft) 97,83 %
13.04.2017 23:50 5,8 C 3,9 C 2,2 C 80 % 0 lf 1016,1 hPa 0,0 l/m 0 min 0 min 0 W/m 4,2 km/h (1 Bft) 97,87 %
13.04.2017 23:52 5,8 C 3,9 C 2,2 C 80 % 0 lf 1016,1 hPa 0,0 l/m 0 min 0 min 0 W/m 4,2 km/h (1 Bft) 93,62 %
13.04.2017 23:54 5,7 C 4,4 C 2,2 C 80 % 0 lf 1016,1 hPa 0,0 l/m 0 min 0 min 0 W/m 4,2 km/h (1 Bft) 95,74 %
13.04.2017 23:56 5,7 C 4,4 C 2,2 C 81 % 1 lf 1016,1 hPa 0,0 l/m 0 min 0 min 0 W/m 2,1 km/h (1 Bft) 93,62 %
13.04.2017 23:58 5,7 C 4,4 C 2,2 C 81 % 1 lf 1016,1 hPa 0,0 l/m 0 min 0 min 0 W/m 4,2 km/h (1 Bft) 95,74 %
_ Min-Zeit 23:54 23:26 23:46 16:18 01:02 04:16 - - - - 22:26 00:02
Minimum _ 5,7 C 3,9 C 2,2 C 58 % 0 lf 1012,0 hPa - - - - 0,0 km/h (0 Bft) 14,29 %
_ Max-Zeit 15:12 14:36 15:04 07:06 00:00 23:42 04:30 07:40 00:20 14:28 10:32 00:10
Maximum _ 13,9 C 21,7 C 18,9 C 95 % 15 lf 1016,1 hPa 0,2 l/m 2 min 2 min 974 W/m 35,6 km/h
W-NW (5 Bft)
100,00 %
Durchschnitt _ 10,2 C 10,9 C 9,3 C 78 % 2 lf 1014,0 hPa #0,2 l/m #3:14 h #36 min. 172 W/m 16,1 km/h (3 Bft) 96,10 %
© 2017 W. Hausmann